W2GRK-15 Weather Reports


Display with metric or nautical units.
time (UTC)temp
F
wind
direction
speed
MPH
gust
MPH
rain 1hr
in
rain 24hr
in
rain mn
in
humidity
%
barometer
mb
20260508222230 62 338 1.0 3.0 0.00 0.00 0.00 47 1011.8
20260508222126 62 339 1.0 2.0 0.00 0.00 0.00 47 1011.8
20260508222021 62 195 1.0 1.0 0.00 0.00 0.00 47 1011.8
20260508221917 62 68 1.0 3.0 0.00 0.00 0.00 46 1011.8
20260508221849 62 33 1.0 2.0 0.00 0.00 0.00 47 1011.7
20260508221724 62 344 0.0 2.0 0.00 0.00 0.00 47 1011.8
20260508221620 62 0.0 0.0 0.00 0.00 0.00 47 1011.8
20260508221516 62 151 1.0 2.0 0.00 0.00 0.00 48 1011.7
20260508221427 62 140 1.0 2.0 0.00 0.00 0.00 46 1012.1
20260508221323 62 190 1.0 3.0 0.00 0.00 0.00 47 1011.8
20260508221218 62 130 0.0 2.0 0.00 0.00 0.00 47 1011.7
20260508221130 62 5 1.0 2.0 0.00 0.00 0.00 47 1011.9
20260508221045 62 274 0.0 1.0 0.00 0.00 0.00 47 1012.0
20260508220921 62 305 1.0 2.0 0.00 0.00 0.00 47 1011.8
20260508220817 62 326 2.0 4.0 0.00 0.00 0.00 46 1011.9
20260508220729 62 329 1.0 4.0 0.00 0.00 0.00 47 1012.0
20260508220624 62 352 1.0 3.0 0.00 0.00 0.00 46 1011.9
20260508220520 62 70 1.0 2.0 0.00 0.00 0.00 47 1011.9
20260508220415 62 72 1.0 2.0 0.00 0.00 0.00 47 1011.8
20260508220347 62 4 1.0 2.0 0.00 0.00 0.00 46 1011.7
20260508220223 62 182 1.0 2.0 0.00 0.00 0.00 47 1011.9
20260508220118 63 212 2.0 2.0 0.00 0.00 0.00 47 1012.0
20260508220050 63 253 2.0 4.0 0.00 0.00 0.00 46 1011.9
20260508215926 63 176 2.0 3.0 0.00 0.00 0.00 46 1011.9
20260508215841 63 321 2.0 3.0 0.00 0.00 0.00 45 1011.6
20260508215717 63 178 1.0 2.0 0.00 0.00 0.00 47 1011.8
20260508215628 63 344 1.0 2.0 0.00 0.00 0.00 46 1011.6
20260508215524 63 218 1.0 3.0 0.00 0.00 0.00 47 1011.5
20260508215420 63 310 2.0 3.0 0.00 0.00 0.00 45 1011.7
20260508215315 63 285 1.0 3.0 0.00 0.00 0.00 45 1011.7
20260508215227 63 15 3.0 5.0 0.00 0.00 0.00 45 1011.7
20260508215123 63 54 3.0 5.0 0.00 0.00 0.00 45 1011.8
20260508215019 63 28 1.0 3.0 0.00 0.00 0.00 47 1011.7
20260508214950 63 180 2.0 2.0 0.00 0.00 0.00 47 1011.6
20260508214846 63 322 3.0 7.0 0.00 0.00 0.00 45 1011.7
20260508214721 63 14 2.0 3.0 0.00 0.00 0.00 45 1011.8
20260508214617 63 15 3.0 4.0 0.00 0.00 0.00 44 1011.8
20260508214529 63 10 4.0 5.0 0.00 0.00 0.00 45 1011.8
20260508214424 63 318 2.0 4.0 0.00 0.00 0.00 46 1011.7
20260508214320 63 205 2.0 3.0 0.00 0.00 0.00 47 1011.6
20260508214215 63 216 1.0 2.0 0.00 0.00 0.00 48 1011.8
20260508214147 63 202 1.0 6.0 0.00 0.00 0.00 46 1012.1
20260508214023 62 206 1.0 2.0 0.00 0.00 0.00 46 1011.6
20260508213919 62 47 1.0 4.0 0.00 0.00 0.00 45 1011.6
20260508213830 62 50 1.0 4.0 0.00 0.00 0.00 45 1011.6
20260508213806 62 78 1.0 2.0 0.00 0.00 0.00 45 1011.6
20260508213621 62 182 1.0 2.0 0.00 0.00 0.00 47 1011.6
20260508213517 62 3 1.0 2.0 0.00 0.00 0.00 46 1011.5
20260508213429 62 311 2.0 3.0 0.00 0.00 0.00 45 1011.6
20260508213324 62 344 2.0 3.0 0.00 0.00 0.00 45 1011.5
20260508213240 62 312 1.0 3.0 0.00 0.00 0.00 45 1011.6
20260508213116 62 269 2.0 3.0 0.00 0.00 0.00 45 1011.8
20260508213027 62 331 2.0 3.0 0.00 0.00 0.00 46 1011.8
20260508212923 62 217 2.0 3.0 0.00 0.00 0.00 46 1011.8
20260508212819 62 42 2.0 3.0 0.00 0.00 0.00 45 1011.6
20260508212730 62 328 2.0 3.0 0.00 0.00 0.00 45 1011.8
20260508212626 62 321 2.0 4.0 0.00 0.00 0.00 44 1011.7
20260508212541 62 23 4.0 5.0 0.00 0.00 0.00 45 1011.8
20260508212418 62 333 2.0 5.0 0.00 0.00 0.00 45 1011.8
20260508212329 63 351 3.0 6.0 0.00 0.00 0.00 45 1011.7
20260508212224 63 317 2.0 4.0 0.00 0.00 0.00 45 1011.8
20260508212120 63 321 2.0 3.0 0.00 0.00 0.00 45 1012.0
20260508212015 63 353 2.0 5.0 0.00 0.00 0.00 45 1011.8
20260508211927 63 3 2.0 3.0 0.00 0.00 0.00 44 1011.8
20260508211823 63 330 1.0 7.0 0.00 0.00 0.00 44 1011.8
20260508211718 63 329 3.0 6.0 0.00 0.00 0.00 44 1011.8
20260508211629 63 299 2.0 5.0 0.00 0.00 0.00 45 1011.8
20260508211525 63 348 4.0 6.0 0.00 0.00 0.00 44 1011.5
20260508211420 63 331 3.0 6.0 0.00 0.00 0.00 45 1011.7
20260508211316 63 18 4.0 7.0 0.00 0.00 0.00 44 1011.9
20260508211248 63 347 2.0 5.0 0.00 0.00 0.00 44 1011.8
20260508211124 63 129 1.0 3.0 0.00 0.00 0.00 44 1011.8
20260508211020 63 357 3.0 8.0 0.00 0.00 0.00 45 1011.9
20260508210931 63 318 3.0 5.0 0.00 0.00 0.00 45 1011.8
20260508210827 63 34 4.0 8.0 0.00 0.00 0.00 44 1011.8
20260508210742 63 341 3.0 4.0 0.00 0.00 0.00 44 1011.7
20260508210618 63 324 2.0 5.0 0.00 0.00 0.00 44 1011.6
20260508210530 63 345 3.0 5.0 0.00 0.00 0.00 44 1011.8
20260508210425 63 341 2.0 4.0 0.00 0.00 0.00 44 1011.9
20260508210321 63 220 2.0 3.0 0.00 0.00 0.00 45 1011.8
20260508210216 63 26 2.0 6.0 0.00 0.00 0.00 44 1011.9
20260508210148 63 318 4.0 6.0 0.00 0.00 0.00 44 1011.8
20260508210023 63 326 2.0 3.0 0.00 0.00 0.00 44 1011.9
20260508205919 63 13 2.0 3.0 0.00 0.00 0.00 43 1012.0
20260508205815 63 83 1.0 3.0 0.00 0.00 0.00 44 1011.8
20260508205727 63 235 2.0 3.0 0.00 0.00 0.00 45 1011.9
20260508205622 63 27 1.0 4.0 0.00 0.00 0.00 44 1011.8
20260508205558 63 303 2.0 4.0 0.00 0.00 0.00 43 1011.9
20260508205430 63 326 4.0 9.0 0.00 0.00 0.00 44 1012.0
20260508205325 63 47 2.0 4.0 0.00 0.00 0.00 45 1012.0
20260508205221 63 178 1.0 3.0 0.00 0.00 0.00 45 1011.9
20260508205217 62 312 1.0 3.0 0.00 0.00 0.00 44 1011.9
20260508205028 62 54 1.0 2.0 0.00 0.00 0.00 44 1012.0
20260508204944 62 319 2.0 4.0 0.00 0.00 0.00 43 1012.0
20260508204820 62 20 2.0 4.0 0.00 0.00 0.00 44 1011.9
20260508204715 62 218 1.0 2.0 0.00 0.00 0.00 45 1011.9
20260508204647 62 198 1.0 3.0 0.00 0.00 0.00 44 1012.1
20260508204522 62 21 2.0 3.0 0.00 0.00 0.00 44 1012.1
20260508204418 62 31 2.0 2.0 0.00 0.00 0.00 44 1012.1
20260508204330 62 20 2.0 4.0 0.00 0.00 0.00 43 1012.1
20260508204245 62 319 2.0 4.0 0.00 0.00 0.00 44 1012.0
20260508204121 62 345 1.0 4.0 0.00 0.00 0.00 43 1012.0
20260508204017 62 343 3.0 4.0 0.00 0.00 0.00 43 1012.1
20260508203928 62 217 2.0 3.0 0.00 0.00 0.00 44 1012.1
20260508203824 62 243 2.0 3.0 0.00 0.00 0.00 43 1011.8
20260508203739 62 341 2.0 3.0 0.00 0.00 0.00 42 1012.1
20260508203615 62 323 2.0 5.0 0.00 0.00 0.00 42 1012.0
20260508203527 63 337 5.0 9.0 0.00 0.00 0.00 42 1012.1
20260508203422 63 271 3.0 7.0 0.00 0.00 0.00 42 1012.0
20260508203318 63 341 3.0 5.0 0.00 0.00 0.00 42 1012.0
20260508203230 63 203 2.0 4.0 0.00 0.00 0.00 42 1011.9
20260508203125 63 325 3.0 9.0 0.00 0.00 0.00 41 1011.9
20260508203021 63 183 2.0 3.0 0.00 0.00 0.00 44 1011.8
20260508202917 63 53 2.0 4.0 0.00 0.00 0.00 42 1011.8
20260508202828 63 203 2.0 6.0 0.00 0.00 0.00 43 1011.9
20260508202724 63 188 2.0 3.0 0.00 0.00 0.00 43 1012.0
20260508202620 62 168 2.0 4.0 0.00 0.00 0.00 42 1011.8
20260508202535 62 274 1.0 4.0 0.00 0.00 0.00 42 1011.8
20260508202427 62 118 2.0 4.0 0.00 0.00 0.00 43 1012.0
20260508202323 62 292 2.0 2.0 0.00 0.00 0.00 43 1012.1
20260508202218 62 234 3.0 4.0 0.00 0.00 0.00 42 1012.0
20260508202150 62 192 2.0 5.0 0.00 0.00 0.00 44 1012.2
20260508202045 62 276 4.0 5.0 0.00 0.00 0.00 44 1012.2
20260508201921 63 350 3.0 7.0 0.00 0.00 0.00 43 1012.0
20260508201817 63 237 1.0 4.0 0.00 0.00 0.00 44 1012.0
20260508201728 63 6 4.0 6.0 0.00 0.00 0.00 43 1012.0
20260508201624 63 343 1.0 3.0 0.00 0.00 0.00 44 1012.1
20260508201520 63 92 1.0 2.0 0.00 0.00 0.00 43 1011.9
20260508201415 63 140 1.0 2.0 0.00 0.00 0.00 44 1011.9
20260508201327 63 206 2.0 3.0 0.00 0.00 0.00 44 1012.1
20260508201222 63 188 2.0 4.0 0.00 0.00 0.00 42 1011.9
20260508201118 63 186 2.0 6.0 0.00 0.00 0.00 42 1012.0
20260508201050 63 203 3.0 6.0 0.00 0.00 0.00 44 1012.0
20260508200926 63 197 3.0 5.0 0.00 0.00 0.00 43 1012.0
20260508200821 62 223 1.0 2.0 0.00 0.00 0.00 43 1011.9
20260508200717 62 60 1.0 2.0 0.00 0.00 0.00 44 1011.8
20260508200628 62 206 2.0 3.0 0.00 0.00 0.00 44 1011.9
20260508200524 62 204 2.0 7.0 0.00 0.00 0.00 44 1011.9
20260508200420 62 199 5.0 9.0 0.00 0.00 0.00 42 1012.0
20260508200335 62 196 4.0 5.0 0.00 0.00 0.00 43 1012.0
20260508200227 62 242 3.0 11.0 0.00 0.00 0.00 43 1012.0
20260508200123 62 224 5.0 7.0 0.00 0.00 0.00 43 1012.1
20260508200038 62 180 3.0 6.0 0.00 0.00 0.00 43 1012.0
20260508195930 62 298 3.0 6.0 0.00 0.00 0.00 43 1011.9
20260508195826 62 308 2.0 5.0 0.00 0.00 0.00 42 1012.1
20260508195721 62 183 3.0 4.0 0.00 0.00 0.00 42 1011.8
20260508195617 63 241 2.0 3.0 0.00 0.00 0.00 42 1012.1
20260508195528 63 28 2.0 4.0 0.00 0.00 0.00 41 1011.9
20260508195424 63 197 3.0 6.0 0.00 0.00 0.00 41 1012.0
20260508195320 63 82 2.0 3.0 0.00 0.00 0.00 41 1012.0
20260508195215 63 208 1.0 3.0 0.00 0.00 0.00 41 1011.9
20260508195127 63 73 2.0 4.0 0.00 0.00 0.00 40 1012.1
20260508195022 63 190 2.0 4.0 0.00 0.00 0.00 40 1011.9
20260508194918 63 275 2.0 4.0 0.00 0.00 0.00 40 1011.9
20260508194830 63 304 2.0 7.0 0.00 0.00 0.00 40 1011.9
20260508194726 63 215 2.0 6.0 0.00 0.00 0.00 40 1011.8
20260508194621 63 195 4.0 6.0 0.00 0.00 0.00 40 1011.8
20260508194517 63 210 3.0 8.0 0.00 0.00 0.00 40 1011.9
20260508194509 63 184 5.0 9.0 0.00 0.00 0.00 39 1012.0
20260508194324 63 271 2.0 4.0 0.00 0.00 0.00 40 1011.9
20260508194220 63 19 2.0 4.0 0.00 0.00 0.00 40 1011.6
20260508194116 63 310 3.0 6.0 0.00 0.00 0.00 40 1011.8
20260508194027 63 1 2.0 3.0 0.00 0.00 0.00 40 1011.6
20260508193923 63 314 2.0 4.0 0.00 0.00 0.00 39 1011.6
20260508193819 63 301 1.0 8.0 0.00 0.00 0.00 39 1011.7
20260508193730 63 293 4.0 8.0 0.00 0.00 0.00 40 1011.9
20260508193626 63 324 5.0 8.0 0.00 0.00 0.00 40 1011.7
20260508193521 64 313 4.0 9.0 0.00 0.00 0.00 40 1011.6
20260508193437 64 333 4.0 4.0 0.00 0.00 0.00 40 1011.6
20260508193329 64 176 4.0 7.0 0.00 0.00 0.00 40 1011.7
20260508193224 64 109 1.0 2.0 0.00 0.00 0.00 40 1011.7
20260508193120 64 301 2.0 4.0 0.00 0.00 0.00 39 1011.6
20260508193015 64 43 1.0 3.0 0.00 0.00 0.00 40 1011.8
20260508192927 64 177 2.0 4.0 0.00 0.00 0.00 40 1011.9
20260508192823 64 195 4.0 6.0 0.00 0.00 0.00 41 1011.7
20260508192718 64 237 2.0 3.0 0.00 0.00 0.00 39 1011.8
20260508192630 64 4 2.0 4.0 0.00 0.00 0.00 39 1011.6
20260508192526 64 329 3.0 8.0 0.00 0.00 0.00 39 1011.8
20260508192421 64 11 2.0 4.0 0.00 0.00 0.00 41 1011.6
20260508192337 64 300 2.0 4.0 0.00 0.00 0.00 40 1011.7
20260508192228 64 323 4.0 6.0 0.00 0.00 0.00 40 1011.7
20260508192124 64 198 4.0 6.0 0.00 0.00 0.00 40 1011.9
20260508192019 64 195 2.0 4.0 0.00 0.00 0.00 41 1011.8
20260508191915 64 190 3.0 5.0 0.00 0.00 0.00 40 1011.7
20260508191827 64 186 3.0 6.0 0.00 0.00 0.00 39 1011.8
20260508191722 64 186 4.0 6.0 0.00 0.00 0.00 40 1011.7
20260508191618 64 171 3.0 4.0 0.00 0.00 0.00 39 1011.7
20260508191530 64 195 3.0 4.0 0.00 0.00 0.00 40 1011.7
20260508191425 64 199 2.0 4.0 0.00 0.00 0.00 41 1012.0
20260508191321 64 191 1.0 3.0 0.00 0.00 0.00 39 1011.8
20260508191217 64 219 3.0 4.0 0.00 0.00 0.00 39 1011.8
20260508191148 64 259 1.0 3.0 0.00 0.00 0.00 40 1011.9
20260508191024 64 210 2.0 5.0 0.00 0.00 0.00 42 1011.9
20260508190919 64 200 6.0 9.0 0.00 0.00 0.00 40 1011.8
20260508190815 64 212 5.0 6.0 0.00 0.00 0.00 40 1011.8
20260508190747 64 208 4.0 6.0 0.00 0.00 0.00 40 1011.9
20260508190623 64 205 4.0 5.0 0.00 0.00 0.00 40 1011.9
20260508190518 64 203 5.0 8.0 0.00 0.00 0.00 39 1011.9
20260508190430 64 203 3.0 5.0 0.00 0.00 0.00 38 1011.9
20260508190325 64 214 2.0 4.0 0.00 0.00 0.00 40 1012.1
20260508190221 64 208 2.0 6.0 0.00 0.00 0.00 39 1011.9
20260508190117 64 204 6.0 9.0 0.00 0.00 0.00 40 1012.1
20260508190028 65 199 6.0 8.0 0.00 0.00 0.00 40 1011.8
20260508185924 65 193 5.0 8.0 0.00 0.00 0.00 40 1011.9
20260508185820 65 199 5.0 8.0 0.00 0.00 0.00 41 1012.0
20260508185715 65 180 3.0 5.0 0.00 0.00 0.00 40 1011.9
20260508185627 64 188 4.0 7.0 0.00 0.00 0.00 42 1012.2
20260508185542 64 337 3.0 9.0 0.00 0.00 0.00 41 1012.0
20260508185418 64 335 1.0 2.0 0.00 0.00 0.00 40 1012.2
20260508185330 64 209 1.0 3.0 0.00 0.00 0.00 41 1012.3
20260508185225 64 292 1.0 2.0 0.00 0.00 0.00 39 1012.1
20260508185121 64 213 2.0 3.0 0.00 0.00 0.00 40 1012.0
20260508185016 64 200 3.0 7.0 0.00 0.00 0.00 40 1012.2
20260508184928 64 179 4.0 7.0 0.00 0.00 0.00 39 1011.9
20260508184824 64 175 2.0 6.0 0.00 0.00 0.00 40 1012.0
20260508184720 64 176 4.0 6.0 0.00 0.00 0.00 41 1012.0
20260508184615 64 200 3.0 4.0 0.00 0.00 0.00 41 1012.0
20260508184527 64 221 3.0 4.0 0.00 0.00 0.00 40 1012.1
20260508184422 64 299 3.0 5.0 0.00 0.00 0.00 40 1012.1
20260508184338 64 234 2.0 3.0 0.00 0.00 0.00 40 1011.9
20260508184230 64 93 2.0 3.0 0.00 0.00 0.00 40 1011.9
20260508184126 64 218 2.0 6.0 0.00 0.00 0.00 40 1012.0
20260508184021 64 213 3.0 6.0 0.00 0.00 0.00 40 1012.0
20260508183917 63 171 2.0 2.0 0.00 0.00 0.00 40 1012.2
20260508183829 63 191 1.0 5.0 0.00 0.00 0.00 41 1012.1
20260508183724 63 192 4.0 5.0 0.00 0.00 0.00 39 1011.9
20260508183620 63 195 4.0 7.0 0.00 0.00 0.00 39 1012.2
20260508183515 64 218 4.0 8.0 0.00 0.00 0.00 38 1012.1
20260508183427 63 198 3.0 7.0 0.00 0.00 0.00 40 1012.1
20260508183323 64 211 5.0 9.0 0.00 0.00 0.00 39 1012.1
20260508183238 64 214 3.0 9.0 0.00 0.00 0.00 39 1012.2
20260508183130 64 208 4.0 6.0 0.00 0.00 0.00 40 1012.0
20260508183026 64 176 3.0 5.0 0.00 0.00 0.00 40 1012.0
20260508182921 64 162 1.0 2.0 0.00 0.00 0.00 41 1012.1
20260508182837 64 203 2.0 5.0 0.00 0.00 0.00 40 1012.3
20260508182809 64 213 2.0 3.0 0.00 0.00 0.00 41 1012.2
20260508182624 64 207 3.0 6.0 0.00 0.00 0.00 41 1012.2
20260508182520 64 12 2.0 4.0 0.00 0.00 0.00 41 1012.3
20260508182415 64 354 2.0 3.0 0.00 0.00 0.00 40 1012.1
20260508182327 63 351 3.0 5.0 0.00 0.00 0.00 41 1012.0
20260508182223 63 259 3.0 5.0 0.00 0.00 0.00 41 1012.1
20260508182118 63 188 4.0 6.0 0.00 0.00 0.00 39 1012.0
20260508182050 64 202 5.0 8.0 0.00 0.00 0.00 41 1012.2
20260508181926 64 203 4.0 5.0 0.00 0.00 0.00 41 1012.1
20260508181821 63 192 3.0 5.0 0.00 0.00 0.00 42 1012.2
20260508181737 64 187 3.0 6.0 0.00 0.00 0.00 39 1012.2
20260508181629 64 202 4.0 9.0 0.00 0.00 0.00 41 1012.2
20260508181524 63 225 4.0 8.0 0.00 0.00 0.00 42 1012.1
20260508181420 64 189 8.0 13.0 0.00 0.00 0.00 39 1011.9
20260508181315 64 196 7.0 8.0 0.00 0.00 0.00 41 1011.9
20260508181227 64 196 6.0 9.0 0.00 0.00 0.00 40 1012.1
20260508181123 64 213 5.0 7.0 0.00 0.00 0.00 43 1012.0
20260508181018 64 185 3.0 6.0 0.00 0.00 0.00 41 1012.1
20260508180930 64 194 3.0 8.0 0.00 0.00 0.00 40 1012.2
20260508180826 64 197 7.0 10.0 0.00 0.00 0.00 40 1012.1
20260508180722 64 196 4.0 7.0 0.00 0.00 0.00 42 1012.1
20260508180617 63 207 4.0 6.0 0.00 0.00 0.00 43 1012.3
20260508180529 63 219 3.0 7.0 0.00 0.00 0.00 41 1012.1
20260508180425 63 190 5.0 7.0 0.00 0.00 0.00 41 1012.1
20260508180340 63 196 5.0 8.0 0.00 0.00 0.00 43 1012.3
20260508180216 63 204 6.0 11.0 0.00 0.00 0.00 41 1012.0
20260508180128 64 181 5.0 7.0 0.00 0.00 0.00 40 1012.2
20260508180023 64 187 2.0 3.0 0.00 0.00 0.00 42 1012.1
20260508175919 64 230 3.0 5.0 0.00 0.00 0.00 42 1012.1
20260508175831 63 12 5.0 7.0 0.00 0.00 0.00 43 1012.2
20260508175726 62 208 3.0 5.0 0.00 0.00 0.00 43 1012.3
20260508175622 62 212 3.0 7.0 0.00 0.00 0.00 42 1012.3
20260508175518 62 209 8.0 13.0 0.00 0.00 0.00 40 1012.2
20260508175509 62 199 5.0 8.0 0.00 0.00 0.00 42 1012.3
20260508175325 62 192 4.0 7.0 0.00 0.00 0.00 43 1012.5
20260508175221 62 235 3.0 6.0 0.00 0.00 0.00 43 1012.4
20260508175156 62 190 4.0 6.0 0.00 0.00 0.00 43 1012.5
20260508175048 62 210 4.0 6.0 0.00 0.00 0.00 42 1012.9
20260508175004 62 204 4.0 8.0 0.00 0.00 0.00 41 1012.5
20260508174839 62 196 6.0 8.0 0.00 0.00 0.00 41 1012.7
20260508174715 62 28 1.0 5.0 0.00 0.00 0.00 42 1012.6
20260508174627 62 149 5.0 10.0 0.00 0.00 0.00 41 1012.6
20260508174542 62 206 1.0 3.0 0.00 0.00 0.00 41 1012.6
20260508174418 62 205 2.0 3.0 0.00 0.00 0.00 42 1012.7
20260508174329 62 345 3.0 6.0 0.00 0.00 0.00 41 1012.6
20260508174225 62 301 4.0 6.0 0.00 0.00 0.00 42 1012.5
20260508174121 62 194 3.0 5.0 0.00 0.00 0.00 41 1012.6
20260508174016 62 291 3.0 5.0 0.00 0.00 0.00 40 1012.5
20260508173928 62 199 4.0 13.0 0.00 0.00 0.00 41 1012.7
20260508173844 62 201 5.0 13.0 0.00 0.00 0.00 41 1012.8
20260508173719 62 100 3.0 4.0 0.00 0.00 0.00 41 1012.8
20260508173615 62 190 4.0 10.0 0.00 0.00 0.00 41 1012.8
20260508173527 63 316 3.0 5.0 0.00 0.00 0.00 41 1012.7
20260508173422 63 327 3.0 5.0 0.00 0.00 0.00 41 1012.9
20260508173338 63 173 2.0 3.0 0.00 0.00 0.00 41 1012.7
20260508173230 63 291 3.0 7.0 0.00 0.00 0.00 39 1012.7
20260508173125 63 348 4.0 8.0 0.00 0.00 0.00 40 1012.9
20260508173021 64 218 5.0 10.0 0.00 0.00 0.00 41 1012.8
20260508172916 64 200 6.0 12.0 0.00 0.00 0.00 40 1012.9
20260508172828 64 191 2.0 4.0 0.00 0.00 0.00 43 1012.6
20260508172724 64 198 2.0 6.0 0.00 0.00 0.00 40 1012.7
20260508172619 65 196 4.0 6.0 0.00 0.00 0.00 39 1012.7
20260508172515 64 175 2.0 5.0 0.00 0.00 0.00 42 1012.8
20260508172427 64 196 3.0 4.0 0.00 0.00 0.00 42 1012.6
20260508172322 64 271 3.0 5.0 0.00 0.00 0.00 41 1012.7
20260508172218 64 177 4.0 6.0 0.00 0.00 0.00 41 1012.6
20260508172130 64 178 3.0 5.0 0.00 0.00 0.00 40 1012.5
20260508172045 64 135 3.0 4.0 0.00 0.00 0.00 41 1012.6
20260508171921 63 240 2.0 4.0 0.00 0.00 0.00 40 1012.9
20260508171817 63 117 3.0 5.0 0.00 0.00 0.00 41 1012.8
20260508171728 63 223 3.0 4.0 0.00 0.00 0.00 41 1012.8
20260508171644 63 182 3.0 6.0 0.00 0.00 0.00 43 1012.7
20260508171519 62 146 2.0 4.0 0.00 0.00 0.00 43 1012.8
20260508171415 62 336 2.0 6.0 0.00 0.00 0.00 41 1012.8
20260508171327 62 227 3.0 5.0 0.00 0.00 0.00 42 1012.8
20260508171222 63 215 3.0 9.0 0.00 0.00 0.00 42 1012.8
20260508171118 63 190 7.0 11.0 0.00 0.00 0.00 41 1012.5
20260508171030 63 211 3.0 5.0 0.00 0.00 0.00 41 1012.7
20260508170925 63 353 3.0 6.0 0.00 0.00 0.00 41 1012.6
20260508170821 62 9 2.0 4.0 0.00 0.00 0.00 42 1012.8
20260508170717 62 216 4.0 6.0 0.00 0.00 0.00 42 1012.7
20260508170649 62 188 3.0 6.0 0.00 0.00 0.00 43 1012.6
20260508170544 62 113 2.0 4.0 0.00 0.00 0.00 42 1012.6
20260508170420 62 194 7.0 10.0 0.00 0.00 0.00 40 1012.6
20260508170315 62 202 5.0 9.0 0.00 0.00 0.00 41 1012.8
20260508170227 63 203 6.0 9.0 0.00 0.00 0.00 41 1013.0
20260508170123 62 197 4.0 5.0 0.00 0.00 0.00 43 1012.9
20260508170019 63 216 4.0 7.0 0.00 0.00 0.00 41 1012.8
20260508165930 63 210 6.0 9.0 0.00 0.00 0.00 41 1012.7
20260508165826 63 196 2.0 5.0 0.00 0.00 0.00 42 1012.8
20260508165721 62 304 3.0 7.0 0.00 0.00 0.00 43 1012.8
20260508165617 62 45 2.0 3.0 0.00 0.00 0.00 42 1012.8
20260508165529 62 334 4.0 7.0 0.00 0.00 0.00 41 1012.9
20260508165424 62 161 3.0 5.0 0.00 0.00 0.00 42 1013.0
20260508165320 62 193 2.0 4.0 0.00 0.00 0.00 43 1012.8
20260508165216 62 200 3.0 6.0 0.00 0.00 0.00 42 1013.1
20260508165127 62 194 5.0 11.0 0.00 0.00 0.00 42 1013.0
20260508165023 61 246 5.0 10.0 0.00 0.00 0.00 42 1013.0
20260508164919 61 1 4.0 9.0 0.00 0.00 0.00 41 1013.0
20260508164830 61 28 4.0 7.0 0.00 0.00 0.00 42 1012.9
20260508164826 61 228 5.0 9.0 0.00 0.00 0.00 42 1013.1
20260508164621 60 191 4.0 10.0 0.00 0.00 0.00 43 1013.0
20260508164517 60 212 7.0 10.0 0.00 0.00 0.00 42 1013.1
20260508164428 60 196 6.0 11.0 0.00 0.00 0.00 41 1013.1
20260508164324 60 197 6.0 10.0 0.00 0.00 0.00 43 1013.0
20260508164220 61 198 9.0 11.0 0.00 0.00 0.00 41 1013.2
20260508164136 61 193 8.0 13.0 0.00 0.00 0.00 41 1013.2
20260508164027 61 204 6.0 9.0 0.00 0.00 0.00 41 1013.1
20260508163943 61 200 5.0 11.0 0.00 0.00 0.00 42 1013.3
20260508163819 61 195 4.0 8.0 0.00 0.00 0.00 43 1013.1
20260508163730 60 196 2.0 6.0 0.00 0.00 0.00 43 1013.1
20260508163626 60 199 4.0 8.0 0.00 0.00 0.00 41 1013.2
20260508163542 60 249 2.0 8.0 0.00 0.00 0.00 43 1013.1
20260508163417 60 218 4.0 5.0 0.00 0.00 0.00 41 1013.1
20260508163329 60 210 4.0 8.0 0.00 0.00 0.00 41 1013.1
20260508163225 61 203 5.0 6.0 0.00 0.00 0.00 41 1013.3
20260508163120 61 191 4.0 5.0 0.00 0.00 0.00 40 1013.1
20260508163016 61 274 1.0 3.0 0.00 0.00 0.00 39 1013.1
20260508162947 61 175 2.0 4.0 0.00 0.00 0.00 41 1013.2
20260508162823 61 137 1.0 2.0 0.00 0.00 0.00 41 1013.2
20260508162719 61 350 2.0 4.0 0.00 0.00 0.00 40 1013.2
20260508162630 61 325 3.0 5.0 0.00 0.00 0.00 42 1013.4
20260508162526 61 201 3.0 6.0 0.00 0.00 0.00 41 1013.4
20260508162422 61 242 4.0 8.0 0.00 0.00 0.00 40 1013.4
20260508162317 62 287 4.0 8.0 0.00 0.00 0.00 39 1013.3
20260508162249 62 350 3.0 11.0 0.00 0.00 0.00 41 1013.5
20260508162125 62 198 2.0 5.0 0.00 0.00 0.00 41 1013.4
20260508162020 62 211 5.0 10.0 0.00 0.00 0.00 39 1013.4
20260508161916 62 193 4.0 8.0 0.00 0.00 0.00 41 1013.4
20260508161828 61 301 3.0 8.0 0.00 0.00 0.00 40 1013.5
20260508161723 61 197 6.0 11.0 0.00 0.00 0.00 40 1013.5
20260508161639 61 201 7.0 9.0 0.00 0.00 0.00 39 1013.3
20260508161531 61 197 4.0 7.0 0.00 0.00 0.00 42 1013.4
20260508161426 62 208 5.0 9.0 0.00 0.00 0.00 41 1013.4
20260508161322 62 223 5.0 8.0 0.00 0.00 0.00 39 1013.6
20260508161217 62 200 2.0 4.0 0.00 0.00 0.00 42 1013.4
20260508161129 62 259 3.0 7.0 0.00 0.00 0.00 39 1013.5
20260508161025 61 242 3.0 6.0 0.00 0.00 0.00 41 1013.3
20260508160920 61 196 3.0 4.0 0.00 0.00 0.00 40 1013.3
20260508160816 61 97 2.0 4.0 0.00 0.00 0.00 39 1013.4
20260508160728 61 247 3.0 5.0 0.00 0.00 0.00 40 1013.3
20260508160623 61 136 3.0 6.0 0.00 0.00 0.00 40 1013.3
20260508160519 61 304 6.0 10.0 0.00 0.00 0.00 39 1013.3
20260508160430 61 312 5.0 11.0 0.00 0.00 0.00 40 1013.5
20260508160326 61 13 7.0 12.0 0.00 0.00 0.00 39 1013.6
20260508160222 61 203 4.0 7.0 0.00 0.00 0.00 41 1013.5
20260508160118 61 174 4.0 4.0 0.00 0.00 0.00 41 1013.5
20260508160029 61 321 3.0 4.0 0.00 0.00 0.00 40 1013.6
20260508155925 60 276 4.0 10.0 0.00 0.00 0.00 41 1013.7
20260508155821 60 60 2.0 5.0 0.00 0.00 0.00 42 1013.7
20260508155716 60 324 4.0 8.0 0.00 0.00 0.00 41 1013.7
20260508155628 60 321 4.0 8.0 0.00 0.00 0.00 40 1013.6
20260508155544 60 330 3.0 5.0 0.00 0.00 0.00 41 1013.7
20260508155419 60 313 5.0 11.0 0.00 0.00 0.00 41 1014.0
20260508155315 60 234 2.0 4.0 0.00 0.00 0.00 42 1013.9
20260508155227 60 260 3.0 10.0 0.00 0.00 0.00 40 1013.8
20260508155142 60 349 3.0 6.0 0.00 0.00 0.00 40 1013.7
20260508155018 60 195 6.0 11.0 0.00 0.00 0.00 39 1013.7
20260508154930 60 184 5.0 8.0 0.00 0.00 0.00 40 1013.7
20260508154825 60 185 4.0 6.0 0.00 0.00 0.00 42 1013.6
20260508154721 60 347 3.0 4.0 0.00 0.00 0.00 42 1013.7
20260508154617 60 207 4.0 10.0 0.00 0.00 0.00 41 1013.8
20260508154528 60 213 3.0 8.0 0.00 0.00 0.00 41 1013.6
20260508154424 59 220 4.0 6.0 0.00 0.00 0.00 42 1013.7
20260508154320 59 206 4.0 11.0 0.00 0.00 0.00 42 1013.6
20260508154215 60 197 10.0 15.0 0.00 0.00 0.00 40 1013.7
20260508154127 60 201 7.0 12.0 0.00 0.00 0.00 42 1013.7
20260508154023 60 236 2.0 6.0 0.00 0.00 0.00 41 1013.7
20260508153918 60 176 4.0 6.0 0.00 0.00 0.00 42 1013.8
20260508153830 59 222 2.0 3.0 0.00 0.00 0.00 43 1013.8
20260508153726 59 179 3.0 4.0 0.00 0.00 0.00 41 1013.8
20260508153621 59 203 3.0 6.0 0.00 0.00 0.00 42 1013.8
20260508153537 59 191 3.0 4.0 0.00 0.00 0.00 41 1013.8
20260508153428 59 159 2.0 4.0 0.00 0.00 0.00 40 1013.8
20260508153344 59 344 3.0 6.0 0.00 0.00 0.00 41 1013.6
20260508153220 60 334 4.0 9.0 0.00 0.00 0.00 39 1013.8
20260508153116 60 321 4.0 8.0 0.00 0.00 0.00 40 1014.0
20260508153027 60 277 2.0 3.0 0.00 0.00 0.00 41 1013.6
20260508152943 60 159 2.0 5.0 0.00 0.00 0.00 40 1013.6
20260508152858 60 348 2.0 5.0 0.00 0.00 0.00 40 1013.8
20260508152730 60 192 2.0 3.0 0.00 0.00 0.00 41 1013.8
20260508152646 60 196 2.0 5.0 0.00 0.00 0.00 40 1013.6
20260508152521 60 347 3.0 8.0 0.00 0.00 0.00 39 1013.7
20260508152417 60 333 2.0 6.0 0.00 0.00 0.00 39 1013.5
20260508152329 60 9 3.0 5.0 0.00 0.00 0.00 40 1013.5
20260508152224 60 171 3.0 4.0 0.00 0.00 0.00 41 1013.5
20260508152120 60 200 3.0 6.0 0.00 0.00 0.00 41 1013.5
20260508152015 60 233 3.0 12.0 0.00 0.00 0.00 41 1013.6
20260508151947 60 183 2.0 7.0 0.00 0.00 0.00 41 1013.7
20260508151822 60 193 6.0 10.0 0.00 0.00 0.00 42 1013.6
20260508151718 60 196 7.0 10.0 0.00 0.00 0.00 40 1013.4
20260508151630 60 195 5.0 8.0 0.00 0.00 0.00 41 1013.5
20260508151525 60 192 6.0 8.0 0.00 0.00 0.00 39 1013.6
20260508151421 60 198 6.0 11.0 0.00 0.00 0.00 39 1013.7
20260508151317 60 190 4.0 10.0 0.00 0.00 0.00 43 1013.6
20260508151229 60 305 3.0 6.0 0.00 0.00 0.00 42 1013.5
20260508151124 60 13 4.0 6.0 0.00 0.00 0.00 40 1013.5
20260508151020 60 304 2.0 5.0 0.00 0.00 0.00 42 1013.4
20260508150916 60 343 4.0 7.0 0.00 0.00 0.00 40 1013.6
20260508150828 59 171 1.0 3.0 0.00 0.00 0.00 41 1013.4
20260508150723 59 221 2.0 3.0 0.00 0.00 0.00 40 1013.5
20260508150619 60 24 2.0 5.0 0.00 0.00 0.00 39 1013.6
20260508150530 60 347 5.0 8.0 0.00 0.00 0.00 40 1013.7
20260508150426 60 74 2.0 6.0 0.00 0.00 0.00 42 1013.5
20260508150322 60 187 1.0 7.0 0.00 0.00 0.00 42 1013.6
20260508150218 60 322 4.0 10.0 0.00 0.00 0.00 41 1013.6
20260508150129 60 236 3.0 5.0 0.00 0.00 0.00 41 1013.5
20260508150025 60 187 2.0 5.0 0.00 0.00 0.00 42 1013.6
20260508145921 60 202 2.0 3.0 0.00 0.00 0.00 42 1013.4
20260508145816 60 347 1.0 3.0 0.00 0.00 0.00 41 1013.6
20260508145728 60 179 2.0 3.0 0.00 0.00 0.00 43 1013.5
20260508145624 60 207 4.0 6.0 0.00 0.00 0.00 43 1013.3
20260508145519 60 203 4.0 6.0 0.00 0.00 0.00 42 1013.3
20260508145451 60 191 4.0 8.0 0.00 0.00 0.00 41 1013.5
20260508145327 61 195 6.0 9.0 0.00 0.00 0.00 41 1013.5
20260508145222 61 186 2.0 4.0 0.00 0.00 0.00 44 1013.6
20260508145138 61 216 3.0 7.0 0.00 0.00 0.00 41 1013.4
20260508145030 60 196 2.0 3.0 0.00 0.00 0.00 44 1013.4
20260508144925 60 44 1.0 2.0 0.00 0.00 0.00 44 1013.5
20260508144821 60 288 3.0 5.0 0.00 0.00 0.00 45 1013.6
20260508144717 60 351 3.0 6.0 0.00 0.00 0.00 44 1013.6
20260508144628 60 33 4.0 6.0 0.00 0.00 0.00 43 1013.6
20260508144524 59 19 2.0 3.0 0.00 0.00 0.00 44 1013.6
20260508144419 60 58 2.0 4.0 0.00 0.00 0.00 43 1013.5
20260508144335 60 327 4.0 9.0 0.00 0.00 0.00 41 1013.6
20260508144227 61 348 3.0 5.0 0.00 0.00 0.00 43 1013.6
20260508144123 60 36 1.0 3.0 0.00 0.00 0.00 46 1013.6
20260508144018 60 22 2.0 3.0 0.00 0.00 0.00 44 1013.6
20260508143950 60 21 2.0 3.0 0.00 0.00 0.00 43 1013.6
20260508143826 59 337 0.0 2.0 0.00 0.00 0.00 45 1013.6
20260508143721 59 137 2.0 3.0 0.00 0.00 0.00 44 1013.6
20260508143617 59 213 2.0 3.0 0.00 0.00 0.00 45 1013.6
20260508143529 59 160 1.0 3.0 0.00 0.00 0.00 44 1013.5
20260508143424 59 194 4.0 8.0 0.00 0.00 0.00 42 1013.4
20260508143320 59 188 2.0 4.0 0.00 0.00 0.00 44 1013.5
20260508143216 59 176 1.0 2.0 0.00 0.00 0.00 44 1013.5
20260508143127 59 15 1.0 3.0 0.00 0.00 0.00 45 1013.4
20260508143023 59 112 0.0 2.0 0.00 0.00 0.00 44 1013.4
20260508142918 58 163 1.0 3.0 0.00 0.00 0.00 44 1013.5
20260508142830 59 297 3.0 5.0 0.00 0.00 0.00 45 1013.5
20260508142726 59 335 2.0 4.0 0.00 0.00 0.00 43 1013.4
20260508142622 59 5 2.0 3.0 0.00 0.00 0.00 44 1013.5
20260508142517 59 310 2.0 4.0 0.00 0.00 0.00 45 1013.4
20260508142429 59 4 1.0 2.0 0.00 0.00 0.00 44 1013.5
20260508142325 58 180 2.0 4.0 0.00 0.00 0.00 45 1013.6
20260508142221 58 186 3.0 4.0 0.00 0.00 0.00 42 1013.4
20260508142116 58 182 3.0 5.0 0.00 0.00 0.00 43 1013.4
20260508142028 59 166 3.0 7.0 0.00 0.00 0.00 42 1013.4
20260508142004 59 189 4.0 7.0 0.00 0.00 0.00 42 1013.6
20260508141819 59 196 3.0 4.0 0.00 0.00 0.00 44 1013.7
20260508141731 59 162 1.0 2.0 0.00 0.00 0.00 46 1013.7
20260508141626 59 12 2.0 4.0 0.00 0.00 0.00 45 1013.7
20260508141522 59 57 2.0 5.0 0.00 0.00 0.00 43 1013.6
20260508141418 59 106 3.0 4.0 0.00 0.00 0.00 43 1013.6
20260508141329 59 106 2.0 4.0 0.00 0.00 0.00 46 1013.6
20260508141245 59 199 2.0 3.0 0.00 0.00 0.00 47 1013.7
20260508141121 59 164 2.0 4.0 0.00 0.00 0.00 42 1013.7
20260508141016 59 203 2.0 4.0 0.00 0.00 0.00 45 1013.7
20260508140928 59 76 2.0 3.0 0.00 0.00 0.00 44 1013.8
20260508140824 59 220 2.0 4.0 0.00 0.00 0.00 46 1013.7
20260508140719 59 195 4.0 5.0 0.00 0.00 0.00 47 1013.8
20260508140631 59 192 5.0 7.0 0.00 0.00 0.00 48 1013.8
20260508140527 59 184 3.0 5.0 0.00 0.00 0.00 47 1013.8
20260508140422 59 318 2.0 4.0 0.00 0.00 0.00 46 1013.8
20260508140318 59 199 1.0 4.0 0.00 0.00 0.00 48 1013.7
20260508140310 59 213 2.0 4.0 0.00 0.00 0.00 48 1013.8
20260508140125 58 300 2.0 3.0 0.00 0.00 0.00 48 1013.9
20260508140021 58 55 1.0 2.0 0.00 0.00 0.00 48 1013.8
20260508135916 57 359 1.0 3.0 0.00 0.00 0.00 47 1013.8
20260508135828 57 185 3.0 6.0 0.00 0.00 0.00 48 1013.7
20260508135744 57 183 3.0 5.0 0.00 0.00 0.00 47 1013.8
20260508135619 58 189 4.0 6.0 0.00 0.00 0.00 47 1013.8
20260508135515 57 194 1.0 4.0 0.00 0.00 0.00 49 1013.8
20260508135427 58 191 3.0 6.0 0.00 0.00 0.00 47 1013.7
20260508135342 58 184 3.0 6.0 0.00 0.00 0.00 47 1013.7
20260508135218 58 184 4.0 5.0 0.00 0.00 0.00 48 1013.6
20260508135130 58 327 3.0 4.0 0.00 0.00 0.00 47 1013.8
20260508135025 58 17 1.0 3.0 0.00 0.00 0.00 49 1013.8
20260508134921 58 41 3.0 4.0 0.00 0.00 0.00 49 1013.8
20260508134816 58 13 3.0 7.0 0.00 0.00 0.00 48 1013.8
20260508134728 58 350 2.0 4.0 0.00 0.00 0.00 50 1013.7
20260508134624 58 27 2.0 4.0 0.00 0.00 0.00 49 1013.7
20260508134519 58 258 1.0 4.0 0.00 0.00 0.00 50 1013.9
20260508134415 58 26 3.0 4.0 0.00 0.00 0.00 48 1013.9
20260508134327 58 355 2.0 3.0 0.00 0.00 0.00 48 1013.7
20260508134223 58 285 2.0 4.0 0.00 0.00 0.00 50 1013.8
20260508134119 58 298 2.0 4.0 0.00 0.00 0.00 51 1013.7
20260508134030 57 11 2.0 4.0 0.00 0.00 0.00 52 1013.9
20260508133925 57 186 0.0 3.0 0.00 0.00 0.00 53 1013.7
20260508133821 57 181 3.0 5.0 0.00 0.00 0.00 50 1013.8
20260508133716 57 181 4.0 6.0 0.00 0.00 0.00 49 1013.8
20260508133628 57 182 2.0 5.0 0.00 0.00 0.00 51 1013.8
20260508133524 57 280 3.0 4.0 0.00 0.00 0.00 50 1014.0
20260508133420 57 337 3.0 7.0 0.00 0.00 0.00 50 1013.8
20260508133315 57 224 4.0 6.0 0.00 0.00 0.00 52 1014.1
20260508133227 57 198 2.0 5.0 0.00 0.00 0.00 52 1013.8
20260508133142 57 34 1.0 3.0 0.00 0.00 0.00 54 1014.1
20260508133018 56 141 2.0 4.0 0.00 0.00 0.00 53 1014.0
20260508132930 57 189 2.0 4.0 0.00 0.00 0.00 52 1014.0
20260508132825 57 180 3.0 4.0 0.00 0.00 0.00 52 1014.0
20260508132721 57 180 4.0 6.0 0.00 0.00 0.00 52 1013.9
20260508132616 57 198 3.0 6.0 0.00 0.00 0.00 55 1013.9
20260508132528 57 175 3.0 5.0 0.00 0.00 0.00 55 1014.0
20260508132424 57 328 1.0 3.0 0.00 0.00 0.00 54 1014.0
20260508132320 56 266 1.0 3.0 0.00 0.00 0.00 55 1013.9
20260508132215 56 319 2.0 4.0 0.00 0.00 0.00 52 1013.9
20260508132127 56 309 4.0 6.0 0.00 0.00 0.00 53 1014.0
20260508132122 56 16 4.0 6.0 0.00 0.00 0.00 53 1013.8
20260508131918 56 29 3.0 4.0 0.00 0.00 0.00 54 1014.1
20260508131850 56 9 2.0 4.0 0.00 0.00 0.00 55 1014.0
20260508131725 55 194 3.0 4.0 0.00 0.00 0.00 55 1013.8
20260508131621 55 196 3.0 7.0 0.00 0.00 0.00 56 1014.0
20260508131517 55 189 5.0 7.0 0.00 0.00 0.00 54 1013.8
20260508131428 56 186 5.0 8.0 0.00 0.00 0.00 54 1013.9
20260508131324 57 196 4.0 6.0 0.00 0.00 0.00 55 1014.1
20260508131219 57 189 4.0 5.0 0.00 0.00 0.00 55 1013.9
20260508131115 57 177 2.0 3.0 0.00 0.00 0.00 56 1013.9
20260508131027 57 184 2.0 3.0 0.00 0.00 0.00 56 1013.9
20260508130922 57 212 2.0 3.0 0.00 0.00 0.00 55 1013.9
20260508130818 56 65 0.0 2.0 0.00 0.00 0.00 55 1013.8
20260508130730 56 1 1.0 3.0 0.00 0.00 0.00 56 1014.0
20260508130705 56 196 2.0 2.0 0.00 0.00 0.00 59 1013.8
20260508130541 56 41 1.0 3.0 0.00 0.00 0.00 58 1013.8
20260508130417 55 72 1.0 2.0 0.00 0.00 0.00 59 1013.8
20260508130328 55 205 2.0 6.0 0.00 0.00 0.00 59 1014.0
20260508130224 56 186 6.0 7.0 0.00 0.00 0.00 57 1013.9
20260508130120 55 177 2.0 4.0 0.00 0.00 0.00 58 1013.8
20260508130015 55 110 1.0 3.0 0.00 0.00 0.00 59 1013.9
20260508125927 55 185 2.0 4.0 0.00 0.00 0.00 59 1013.8
20260508125823 55 184 3.0 6.0 0.00 0.00 0.00 58 1013.7
20260508125718 55 201 1.0 2.0 0.00 0.00 0.00 59 1014.1
20260508125630 55 344 2.0 5.0 0.00 0.00 0.00 59 1013.8
20260508125546 55 168 4.0 6.0 0.00 0.00 0.00 58 1014.0
20260508125421 55 2 2.0 4.0 0.00 0.00 0.00 59 1014.1
20260508125317 55 294 2.0 4.0 0.00 0.00 0.00 59 1013.9
20260508125229 55 300 2.0 8.0 0.00 0.00 0.00 59 1013.9
20260508125124 55 19 3.0 8.0 0.00 0.00 0.00 59 1014.1
20260508125040 55 106 1.0 3.0 0.00 0.00 0.00 60 1013.9
20260508124916 54 185 2.0 4.0 0.00 0.00 0.00 62 1014.0
20260508124828 54 58 2.0 3.0 0.00 0.00 0.00 60 1013.9
20260508124723 54 356 1.0 2.0 0.00 0.00 0.00 59 1013.8
20260508124639 54 330 2.0 7.0 0.00 0.00 0.00 60 1013.9
20260508124531 54 24 4.0 6.0 0.00 0.00 0.00 60 1013.9
20260508124426 55 319 3.0 6.0 0.00 0.00 0.00 59 1014.0
20260508124322 55 1 2.0 4.0 0.00 0.00 0.00 60 1013.9
20260508124237 55 346 2.0 5.0 0.00 0.00 0.00 60 1013.9
20260508124129 55 9 3.0 5.0 0.00 0.00 0.00 60 1013.9
20260508124025 55 18 2.0 3.0 0.00 0.00 0.00 60 1013.9
20260508123920 55 162 1.0 2.0 0.00 0.00 0.00 60 1013.8
20260508123816 55 102 1.0 2.0 0.00 0.00 0.00 61 1013.8
20260508123727 55 177 2.0 4.0 0.00 0.00 0.00 62 1013.9
20260508123623 54 193 3.0 4.0 0.00 0.00 0.00 64 1013.9
20260508123519 54 243 1.0 4.0 0.00 0.00 0.00 62 1013.9
20260508123450 54 58 3.0 4.0 0.00 0.00 0.00 63 1013.9
20260508123326 54 163 2.0 3.0 0.00 0.00 0.00 64 1013.8
20260508123222 54 193 3.0 5.0 0.00 0.00 0.00 63 1014.0
20260508123117 54 183 5.0 6.0 0.00 0.00 0.00 62 1014.0
20260508123029 54 298 1.0 2.0 0.00 0.00 0.00 63 1013.8
20260508123005 54 348 2.0 4.0 0.00 0.00 0.00 63 1014.0
20260508122820 54 58 2.0 3.0 0.00 0.00 0.00 64 1013.9
20260508122737 54 29 2.0 4.0 0.00 0.00 0.00 63 1013.9
20260508122628 54 17 1.0 2.0 0.00 0.00 0.00 63 1013.8
20260508122543 54 284 1.0 4.0 0.00 0.00 0.00 64 1014.0
20260508122419 54 183 1.0 3.0 0.00 0.00 0.00 64 1014.0
20260508122331 54 20 2.0 4.0 0.00 0.00 0.00 64 1013.9
20260508122226 54 177 2.0 6.0 0.00 0.00 0.00 64 1014.0
20260508122122 53 180 2.0 4.0 0.00 0.00 0.00 64 1013.9
20260508122018 53 213 2.0 2.0 0.00 0.00 0.00 65 1013.9
20260508121929 53 176 2.0 3.0 0.00 0.00 0.00 66 1013.9
20260508121825 53 177 2.0 3.0 0.00 0.00 0.00 65 1013.7
20260508121720 53 261 4.0 8.0 0.00 0.00 0.00 65 1013.8
20260508121616 53 336 3.0 9.0 0.00 0.00 0.00 66 1013.9
20260508121528 53 208 2.0 4.0 0.00 0.00 0.00 66 1013.9
20260508121443 53 229 3.0 4.0 0.00 0.00 0.00 65 1013.8
20260508121319 53 344 4.0 4.0 0.00 0.00 0.00 65 1013.9
20260508121311 53 71 2.0 4.0 0.00 0.00 0.00 63 1014.0
20260508121126 54 25 2.0 3.0 0.00 0.00 0.00 64 1013.6
20260508121022 54 106 1.0 3.0 0.00 0.00 0.00 66 1013.9
20260508120958 53 154 2.0 4.0 0.00 0.00 0.00 66 1013.8
20260508120829 53 180 2.0 3.0 0.00 0.00 0.00 66 1014.0
20260508120805 53 5 2.0 3.0 0.00 0.00 0.00 66 1013.8
20260508120641 53 64 2.0 3.0 0.00 0.00 0.00 66 1013.8
20260508120516 53 41 2.0 3.0 0.00 0.00 0.00 66 1014.0
20260508120428 53 61 3.0 4.0 0.00 0.00 0.00 66 1014.0
20260508120324 53 274 2.0 4.0 0.00 0.00 0.00 66 1014.0
20260508120219 53 25 1.0 4.0 0.00 0.00 0.00 65 1014.2
20260508120131 53 2 3.0 4.0 0.00 0.00 0.00 65 1014.1
20260508120027 53 161 1.0 2.0 0.00 0.00 0.00 67 1014.0
20260508115942 53 109 1.0 2.0 0.00 0.00 0.00 67 1013.9
20260508115818 52 306 0.0 1.0 0.00 0.00 0.00 67 1013.9
20260508115729 52 173 1.0 4.0 0.00 0.00 0.00 67 1013.8
20260508115625 52 340 3.0 5.0 0.00 0.00 0.00 66 1014.0
20260508115541 52 356 3.0 6.0 0.00 0.00 0.00 66 1013.8
20260508115416 52 334 4.0 7.0 0.00 0.00 0.00 65 1013.8
20260508115328 52 44 2.0 5.0 0.00 0.00 0.00 67 1013.9
20260508115223 53 355 3.0 8.0 0.00 0.00 0.00 66 1013.6
20260508115119 53 15 4.0 6.0 0.00 0.00 0.00 65 1013.7
20260508115031 53 66 1.0 3.0 0.00 0.00 0.00 67 1014.0
20260508114946 53 106 2.0 3.0 0.00 0.00 0.00 67 1013.8
20260508114842 53 172 2.0 4.0 0.00 0.00 0.00 69 1013.9
20260508114738 53 346 2.0 3.0 0.00 0.00 0.00 68 1014.0
20260508114629 53 328 1.0 3.0 0.00 0.00 0.00 69 1013.9
20260508114525 53 31 1.0 3.0 0.00 0.00 0.00 68 1013.7
20260508114421 53 322 1.0 3.0 0.00 0.00 0.00 68 1013.9
20260508114316 52 89 2.0 3.0 0.00 0.00 0.00 68 1013.9
20260508114228 52 136 2.0 4.0 0.00 0.00 0.00 70 1013.6
20260508114203 52 205 2.0 3.0 0.00 0.00 0.00 69 1013.9
20260508114019 52 5 1.0 2.0 0.00 0.00 0.00 70 1013.8
20260508113931 52 14 1.0 2.0 0.00 0.00 0.00 70 1013.8
20260508113826 51 0.0 2.0 0.00 0.00 0.00 71 1013.9
20260508113722 51 206 2.0 3.0 0.00 0.00 0.00 71 1013.9
20260508113618 51 310 1.0 3.0 0.00 0.00 0.00 72 1014.0
20260508113529 51 338 1.0 4.0 0.00 0.00 0.00 72 1014.0
20260508113425 51 346 2.0 4.0 0.00 0.00 0.00 72 1014.0
20260508113320 51 322 2.0 3.0 0.00 0.00 0.00 72 1013.8
20260508113216 51 195 1.0 2.0 0.00 0.00 0.00 73 1013.8
20260508113128 51 275 2.0 3.0 0.00 0.00 0.00 72 1013.8
20260508113023 51 247 1.0 2.0 0.00 0.00 0.00 73 1013.8
20260508112939 51 114 1.0 2.0 0.00 0.00 0.00 74 1013.6
20260508112831 50 73 0.0 3.0 0.00 0.00 0.00 75 1013.7
20260508112726 50 218 2.0 3.0 0.00 0.00 0.00 75 1014.0
20260508112622 50 337 1.0 3.0 0.00 0.00 0.00 74 1013.9
20260508112517 50 323 1.0 3.0 0.00 0.00 0.00 74 1013.8
20260508112429 50 0 1.0 2.0 0.00 0.00 0.00 76 1013.8
20260508112325 50 0.0 2.0 0.00 0.00 0.00 77 1013.8
20260508112220 50 166 2.0 3.0 0.00 0.00 0.00 77 1013.7
20260508112136 50 179 1.0 4.0 0.00 0.00 0.00 77 1013.8
20260508112027 50 329 2.0 3.0 0.00 0.00 0.00 77 1013.8
20260508111923 50 348 1.0 2.0 0.00 0.00 0.00 78 1013.7
20260508111818 49 137 1.0 2.0 0.00 0.00 0.00 79 1013.8
20260508111730 49 150 1.0 2.0 0.00 0.00 0.00 80 1013.8
20260508111626 49 136 1.0 3.0 0.00 0.00 0.00 80 1013.7
20260508111522 48 158 2.0 3.0 0.00 0.00 0.00 80 1013.8
20260508111417 48 0.0 2.0 0.00 0.00 0.00 81 1013.7
20260508111349 48 160 1.0 2.0 0.00 0.00 0.00 81 1013.5
20260508111224 48 154 0.0 2.0 0.00 0.00 0.00 81 1013.7
20260508111120 48 172 1.0 2.0 0.00 0.00 0.00 81 1013.6
20260508111016 48 172 2.0 3.0 0.00 0.00 0.00 81 1013.6
20260508110928 47 176 3.0 3.0 0.00 0.00 0.00 82 1013.5
20260508110843 47 196 1.0 2.0 0.00 0.00 0.00 82 1013.7
20260508110719 47 180 1.0 2.0 0.00 0.00 0.00 82 1013.8
20260508110630 47 133 1.0 3.0 0.00 0.00 0.00 83 1013.7
20260508110546 47 159 1.0 2.0 0.00 0.00 0.00 84 1013.7
20260508110422 46 294 0.0 2.0 0.00 0.00 0.00 84 1013.7
20260508110338 46 176 1.0 2.0 0.00 0.00 0.00 84 1013.6
20260508110229 46 170 1.0 2.0 0.00 0.00 0.00 85 1013.5
20260508110125 46 178 2.0 3.0 0.00 0.00 0.00 85 1013.5
20260508110040 46 179 2.0 3.0 0.00 0.00 0.00 86 1013.6
20260508105916 46 179 1.0 3.0 0.00 0.00 0.00 86 1013.5
20260508105847 45 173 1.0 2.0 0.00 0.00 0.00 87 1013.5
20260508105723 45 182 1.0 2.0 0.00 0.00 0.00 87 1013.6
20260508105619 45 328 2.0 3.0 0.00 0.00 0.00 87 1013.5
20260508105530 45 353 1.0 3.0 0.00 0.00 0.00 88 1013.6
20260508105506 45 24 1.0 2.0 0.00 0.00 0.00 88 1013.5
20260508105322 44 354 0.0 2.0 0.00 0.00 0.00 88 1013.6
20260508105217 44 33 1.0 2.0 0.00 0.00 0.00 88 1013.4
20260508105149 44 44 1.0 2.0 0.00 0.00 0.00 88 1013.4
20260508105025 44 30 2.0 3.0 0.00 0.00 0.00 89 1013.3
20260508104920 44 45 2.0 3.0 0.00 0.00 0.00 89 1013.5
20260508104816 44 32 1.0 2.0 0.00 0.00 0.00 89 1013.5
20260508104727 44 57 1.0 2.0 0.00 0.00 0.00 89 1013.3
20260508104643 44 70 0.0 2.0 0.00 0.00 0.00 89 1013.5
20260508104519 44 57 1.0 2.0 0.00 0.00 0.00 89 1013.4
20260508104430 44 33 1.0 2.0 0.00 0.00 0.00 89 1013.4
20260508104326 44 0.0 2.0 0.00 0.00 0.00 89 1013.4
20260508104242 44 0.0 2.0 0.00 0.00 0.00 89 1013.4
20260508104137 44 174 0.0 2.0 0.00 0.00 0.00 89 1013.3
20260508104029 44 144 0.0 2.0 0.00 0.00 0.00 89 1013.4
20260508103925 44 144 1.0 2.0 0.00 0.00 0.00 89 1013.3
20260508103820 44 0.0 2.0 0.00 0.00 0.00 88 1013.2
20260508103715 44 138 1.0 2.0 0.00 0.00 0.00 88 1013.5
20260508103627 44 120 1.0 2.0 0.00 0.00 0.00 88 1013.4
20260508103523 43 166 1.0 2.0 0.00 0.00 0.00 88 1013.3
20260508103419 43 173 1.0 2.0 0.00 0.00 0.00 88 1013.3
20260508103330 43 137 1.0 2.0 0.00 0.00 0.00 88 1013.4
20260508103226 43 106 0.0 2.0 0.00 0.00 0.00 88 1013.5
20260508103141 43 123 1.0 2.0 0.00 0.00 0.00 88 1013.3
20260508103017 44 115 0.0 1.0 0.00 0.00 0.00 88 1013.3
20260508102949 44 133 0.0 2.0 0.00 0.00 0.00 88 1013.3
20260508102824 44 116 1.0 2.0 0.00 0.00 0.00 88 1013.3
20260508102720 44 152 1.0 2.0 0.00 0.00 0.00 88 1013.2
20260508102616 44 122 0.0 2.0 0.00 0.00 0.00 88 1013.4
20260508102528 44 0.0 2.0 0.00 0.00 0.00 88 1013.2
20260508102423 44 0.0 2.0 0.00 0.00 0.00 88 1013.3
20260508102319 44 173 0.0 1.0 0.00 0.00 0.00 88 1013.2
20260508102230 44 0.0 0.0 0.00 0.00 0.00 88 1013.2
20260508102126 44 0.0 1.0 0.00 0.00 0.00 88 1013.1
20260508102022 44 136 0.0 2.0 0.00 0.00 0.00 88 1013.1
20260508101917 44 0.0 1.0 0.00 0.00 0.00 88 1013.1
20260508101829 44 202 0.0 1.0 0.00 0.00 0.00 88 1013.2
20260508101725 44 136 0.0 2.0 0.00 0.00 0.00 88 1013.0
20260508101621 44 141 2.0 2.0 0.00 0.00 0.00 88 1013.1
20260508101516 44 148 1.0 2.0 0.00 0.00 0.00 88 1013.1
20260508101428 44 133 2.0 2.0 0.00 0.00 0.00 88 1013.1
20260508101323 44 170 1.0 2.0 0.00 0.00 0.00 87 1012.9
20260508101219 44 166 1.0 2.0 0.00 0.00 0.00 87 1013.1
20260508101131 44 173 0.0 2.0 0.00 0.00 0.00 87 1013.1
20260508101026 44 162 1.0 2.0 0.00 0.00 0.00 87 1013.0
20260508100922 44 176 2.0 2.0 0.00 0.00 0.00 87 1013.1
20260508100818 44 160 1.0 2.0 0.00 0.00 0.00 86 1012.9
20260508100729 44 132 2.0 2.0 0.00 0.00 0.00 86 1013.0
20260508100625 44 129 2.0 2.0 0.00 0.00 0.00 86 1012.9
20260508100540 44 125 1.0 2.0 0.00 0.00 0.00 86 1013.0
20260508100416 44 121 2.0 3.0 0.00 0.00 0.00 86 1012.9
20260508100328 44 104 1.0 3.0 0.00 0.00 0.00 86 1012.7
20260508100223 44 130 1.0 2.0 0.00 0.00 0.00 86 1012.9
20260508100119 44 0.0 1.0 0.00 0.00 0.00 86 1012.7
20260508100031 44 123 0.0 2.0 0.00 0.00 0.00 85 1012.9
20260508095926 44 0.0 2.0 0.00 0.00 0.00 85 1012.8
20260508095842 44 147 0.0 2.0 0.00 0.00 0.00 85 1012.9
20260508095718 44 158 0.0 1.0 0.00 0.00 0.00 85 1013.0
20260508095629 44 151 1.0 2.0 0.00 0.00 0.00 85 1012.9
20260508095525 44 154 1.0 2.0 0.00 0.00 0.00 85 1012.9
20260508095421 45 155 1.0 2.0 0.00 0.00 0.00 85 1012.9
20260508095316 45 144 2.0 2.0 0.00 0.00 0.00 85 1013.0
20260508095228 45 136 2.0 2.0 0.00 0.00 0.00 84 1013.0
20260508095124 45 129 2.0 3.0 0.00 0.00 0.00 84 1013.0
20260508095039 45 125 1.0 2.0 0.00 0.00 0.00 84 1013.1
20260508094915 45 181 1.0 2.0 0.00 0.00 0.00 84 1013.1
20260508094827 45 191 1.0 2.0 0.00 0.00 0.00 83 1012.9
20260508094722 45 191 1.0 2.0 0.00 0.00 0.00 83 1013.0
20260508094618 45 151 1.0 2.0 0.00 0.00 0.00 83 1012.8
20260508094530 45 161 1.0 2.0 0.00 0.00 0.00 83 1012.9
20260508094425 45 87 1.0 2.0 0.00 0.00 0.00 83 1012.8
20260508094341 45 72 1.0 2.0 0.00 0.00 0.00 83 1013.1
20260508094216 45 75 1.0 2.0 0.00 0.00 0.00 83 1013.0
20260508094148 45 68 1.0 2.0 0.00 0.00 0.00 82 1013.0
20260508094044 45 163 0.0 2.0 0.00 0.00 0.00 82 1013.1
20260508093919 45 0.0 1.0 0.00 0.00 0.00 82 1013.0
20260508093815 45 142 1.0 2.0 0.00 0.00 0.00 82 1012.9
20260508093807 46 97 2.0 2.0 0.00 0.00 0.00 82 1013.1
20260508093622 46 138 0.0 1.0 0.00 0.00 0.00 82 1012.9
20260508093518 46 142 1.0 1.0 0.00 0.00 0.00 82 1013.1
20260508093429 46 0.0 1.0 0.00 0.00 0.00 82 1013.1
20260508093325 46 112 0.0 1.0 0.00 0.00 0.00 81 1013.0
20260508093221 46 112 0.0 2.0 0.00 0.00 0.00 81 1012.9
20260508093117 46 93 1.0 2.0 0.00 0.00 0.00 81 1013.0
20260508093028 46 0.0 0.0 0.00 0.00 0.00 80 1012.9
20260508092924 46 114 0.0 1.0 0.00 0.00 0.00 80 1012.9
20260508092840 46 0.0 1.0 0.00 0.00 0.00 80 1012.9
20260508092715 46 0.0 1.0 0.00 0.00 0.00 80 1013.0
20260508092627 46 0.0 1.0 0.00 0.00 0.00 80 1013.0
20260508092523 46 152 1.0 2.0 0.00 0.00 0.00 80 1012.8
20260508092418 46 0.0 1.0 0.00 0.00 0.00 80 1013.1
20260508092330 46 139 1.0 2.0 0.00 0.00 0.00 80 1013.0
20260508092225 46 63 1.0 2.0 0.00 0.00 0.00 80 1012.9
20260508092121 46 119 1.0 3.0 0.00 0.00 0.00 80 1013.1
20260508092020 46 142 1.0 3.0 0.00 0.00 0.00 80 1012.8
20260508091928 46 223 1.0 2.0 0.00 0.00 0.00 79 1012.7
20260508091824 46 308 1.0 3.0 0.00 0.00 0.00 80 1012.9
20260508091719 46 159 1.0 2.0 0.00 0.00 0.00 79 1012.9
20260508091631 46 132 0.0 2.0 0.00 0.00 0.00 79 1012.8
20260508091526 46 92 1.0 2.0 0.00 0.00 0.00 79 1012.9
20260508091422 47 119 1.0 2.0 0.00 0.00 0.00 79 1012.6
20260508091318 47 60 1.0 2.0 0.00 0.00 0.00 79 1012.8
20260508091229 46 28 2.0 2.0 0.00 0.00 0.00 79 1012.8
20260508091125 47 80 1.0 2.0 0.00 0.00 0.00 79 1012.7
20260508091021 47 133 1.0 2.0 0.00 0.00 0.00 79 1012.8
20260508090916 47 336 0.0 2.0 0.00 0.00 0.00 79 1012.6
20260508090828 47 31 0.0 1.0 0.00 0.00 0.00 78 1012.7
20260508090744 47 0.0 1.0 0.00 0.00 0.00 78 1012.9
20260508090619 47 0.0 1.0 0.00 0.00 0.00 78 1012.7
20260508090531 47 130 0.0 2.0 0.00 0.00 0.00 78 1012.5
20260508090426 47 124 1.0 2.0 0.00 0.00 0.00 78 1012.5
20260508090322 47 132 1.0 2.0 0.00 0.00 0.00 78 1012.5
20260508090218 47 145 1.0 3.0 0.00 0.00 0.00 78 1012.6
20260508090129 47 122 2.0 3.0 0.00 0.00 0.00 78 1012.6
20260508090025 47 153 1.0 2.0 0.00 0.00 0.00 78 1012.5
20260508085920 47 168 1.0 2.0 0.00 0.00 0.00 78 1012.5
20260508085836 47 171 1.0 2.0 0.00 0.00 0.00 77 1012.4
20260508085728 47 165 1.0 2.0 0.00 0.00 0.00 77 1012.5
20260508085623 47 170 1.0 2.0 0.00 0.00 0.00 77 1012.5
20260508085539 48 180 0.0 2.0 0.00 0.00 0.00 77 1012.6
20260508085431 48 0.0 2.0 0.00 0.00 0.00 77 1012.5
20260508085346 48 78 1.0 2.0 0.00 0.00 0.00 77 1012.5
20260508085222 48 43 2.0 2.0 0.00 0.00 0.00 77 1012.3
20260508085118 48 105 1.0 2.0 0.00 0.00 0.00 77 1012.4
20260508085029 48 95 1.0 2.0 0.00 0.00 0.00 76 1012.3
20260508084925 48 29 1.0 2.0 0.00 0.00 0.00 76 1012.2
20260508084820 48 343 2.0 3.0 0.00 0.00 0.00 76 1012.3
20260508084736 48 356 2.0 3.0 0.00 0.00 0.00 76 1012.4
20260508084628 48 360 1.0 2.0 0.00 0.00 0.00 76 1012.2
20260508084523 48 356 1.0 3.0 0.00 0.00 0.00 76 1012.3
20260508084419 48 69 1.0 2.0 0.00 0.00 0.00 76 1012.0
20260508084331 48 21 2.0 3.0 0.00 0.00 0.00 76 1012.2
20260508084226 48 193 2.0 3.0 0.00 0.00 0.00 76 1012.1
20260508084122 48 163 2.0 3.0 0.00 0.00 0.00 76 1012.1
20260508084017 48 140 0.0 2.0 0.00 0.00 0.00 76 1012.2
20260508083929 48 38 0.0 2.0 0.00 0.00 0.00 76 1011.9
20260508083825 48 89 2.0 3.0 0.00 0.00 0.00 76 1011.9
20260508083740 48 82 3.0 4.0 0.00 0.00 0.00 76 1011.7
20260508083616 48 76 4.0 6.0 0.00 0.00 0.00 76 1011.8
20260508083548 48 92 2.0 5.0 0.00 0.00 0.00 76 1012.0
20260508083423 48 115 3.0 5.0 0.00 0.00 0.00 77 1011.9
20260508083319 48 84 2.0 3.0 0.00 0.00 0.00 76 1011.9
20260508083231 48 60 1.0 3.0 0.00 0.00 0.00 76 1012.1
20260508083126 48 73 0.0 2.0 0.00 0.00 0.00 76 1012.2
20260508083022 48 89 1.0 2.0 0.00 0.00 0.00 76 1012.2
20260508082917 48 152 2.0 3.0 0.00 0.00 0.00 76 1012.1
20260508082829 48 67 1.0 2.0 0.00 0.00 0.00 76 1012.0
20260508082725 48 347 1.0 3.0 0.00 0.00 0.00 76 1012.2
20260508082620 48 57 1.0 2.0 0.00 0.00 0.00 76 1012.2
20260508082556 48 4 1.0 4.0 0.00 0.01 0.00 76 1012.3
20260508082447 48 16 2.0 3.0 0.00 0.01 0.00 77 1012.2
20260508082323 48 180 1.0 2.0 0.00 0.01 0.00 77 1012.3
20260508082218 48 59 1.0 2.0 0.00 0.01 0.00 77 1012.4
20260508082130 48 156 1.0 2.0 0.00 0.01 0.00 77 1012.5
20260508082026 48 125 2.0 3.0 0.00 0.01 0.00 77 1012.4
20260508081921 48 118 2.0 3.0 0.00 0.01 0.00 77 1012.5
20260508081817 48 119 2.0 4.0 0.00 0.01 0.00 76 1012.4
20260508081729 48 52 3.0 4.0 0.00 0.02 0.00 76 1012.5
20260508081624 48 37 2.0 4.0 0.00 0.02 0.00 77 1012.5
20260508081520 48 331 2.0 3.0 0.00 0.02 0.00 76 1012.4
20260508081415 48 35 5.0 9.0 0.00 0.02 0.00 76 1012.5
20260508081347 48 339 3.0 7.0 0.00 0.02 0.00 76 1012.3
20260508081243 48 268 2.0 4.0 0.00 0.02 0.00 76 1012.5
20260508081118 48 28 2.0 4.0 0.00 0.02 0.00 76 1012.4
20260508081030 48 20 4.0 6.0 0.00 0.02 0.00 76 1012.3
20260508080926 48 31 2.0 3.0 0.00 0.02 0.00 76 1012.3
20260508080821 48 16 2.0 5.0 0.00 0.02 0.00 76 1012.5
20260508080737 48 45 3.0 5.0 0.00 0.02 0.00 76 1012.5
20260508080709 48 159 1.0 3.0 0.00 0.02 0.00 76 1012.5
20260508080524 48 63 2.0 4.0 0.00 0.02 0.00 76 1012.5
20260508080440 48 115 1.0 2.0 0.00 0.02 0.00 76 1012.5
20260508080315 48 178 1.0 2.0 0.00 0.02 0.00 76 1012.4
20260508080227 48 351 1.0 2.0 0.00 0.02 0.00 76 1012.6
20260508080123 48 205 1.0 2.0 0.00 0.02 0.00 76 1012.4
20260508080018 48 234 0.0 2.0 0.00 0.02 0.00 76 1012.5
20260508075950 48 7 2.0 3.0 0.00 0.02 0.00 76 1012.4
20260508075826 48 46 2.0 5.0 0.00 0.02 0.00 76 1012.4
20260508075721 49 302 2.0 3.0 0.00 0.02 0.00 75 1012.4
20260508075617 49 15 2.0 4.0 0.00 0.02 0.00 75 1012.3
20260508075529 49 39 2.0 4.0 0.00 0.02 0.00 75 1012.5
20260508075424 49 39 2.0 3.0 0.00 0.02 0.00 75 1012.4
20260508075320 49 53 3.0 4.0 0.00 0.02 0.00 75 1012.5
20260508075215 49 346 3.0 6.0 0.00 0.02 0.00 75 1012.4
20260508075147 49 26 3.0 4.0 0.00 0.02 0.00 75 1012.4
20260508075023 49 26 2.0 4.0 0.00 0.02 0.00 75 1012.4
20260508074918 49 309 1.0 3.0 0.00 0.02 0.00 75 1012.4
20260508074830 48 350 3.0 5.0 0.00 0.02 0.00 75 1012.5
20260508074726 49 344 2.0 4.0 0.00 0.02 0.00 75 1012.2
20260508074621 49 353 1.0 2.0 0.00 0.02 0.00 74 1012.3
20260508074517 48 5 1.0 3.0 0.00 0.02 0.00 74 1012.4
20260508074429 49 38 1.0 3.0 0.00 0.03 0.00 74 1012.2
20260508074344 49 22 2.0 3.0 0.00 0.03 0.00 74 1012.2
20260508074220 49 131 1.0 3.0 0.00 0.03 0.00 74 1012.1
20260508074115 48 24 1.0 3.0 0.00 0.03 0.00 74 1012.2
20260508074027 48 38 2.0 4.0 0.00 0.03 0.00 74 1012.2
20260508073923 48 87 2.0 3.0 0.00 0.04 0.00 74 1012.0
20260508073818 48 247 1.0 2.0 0.00 0.04 0.00 74 1012.0
20260508073730 48 20 2.0 3.0 0.00 0.04 0.00 74 1011.9
20260508073646 48 338 2.0 3.0 0.00 0.04 0.00 74 1011.8
20260508073541 48 21 3.0 5.0 0.00 0.04 0.00 74 1011.8
20260508073417 48 356 3.0 5.0 0.00 0.04 0.00 74 1011.7
20260508073329 48 19 3.0 5.0 0.00 0.04 0.00 74 1011.7
20260508073224 48 339 1.0 4.0 0.00 0.04 0.00 74 1011.8
20260508073120 48 340 4.0 5.0 0.00 0.04 0.00 74 1011.8
20260508073055 48 350 3.0 6.0 0.00 0.04 0.00 74 1011.7
20260508072927 48 355 2.0 4.0 0.00 0.04 0.00 74 1011.8
20260508072823 48 26 3.0 4.0 0.00 0.04 0.00 74 1011.7
20260508072718 48 20 2.0 3.0 0.00 0.04 0.00 74 1011.7
20260508072630 48 35 2.0 3.0 0.00 0.04 0.00 74 1011.7
20260508072526 48 31 2.0 4.0 0.00 0.04 0.00 74 1011.6
20260508072421 48 344 1.0 4.0 0.00 0.04 0.00 74 1011.6
20260508072317 48 43 4.0 5.0 0.00 0.04 0.00 73 1011.6
20260508072229 48 356 1.0 3.0 0.00 0.04 0.00 73 1011.6
20260508072124 48 340 1.0 4.0 0.00 0.04 0.00 73 1011.5
20260508072040 48 1 3.0 4.0 0.00 0.04 0.00 73 1011.6
20260508071915 48 5 1.0 3.0 0.00 0.04 0.00 73 1011.7
20260508071827 49 6 2.0 3.0 0.00 0.04 0.00 73 1011.7
20260508071743 49 113 1.0 3.0 0.00 0.04 0.00 73 1011.6
20260508071618 49 35 1.0 2.0 0.00 0.04 0.00 73 1011.4
20260508071530 49 60 2.0 3.0 0.00 0.04 0.00 72 1011.5
20260508071506 49 7 2.0 4.0 0.00 0.04 0.00 72 1011.5
20260508071321 49 345 3.0 5.0 0.00 0.04 0.00 72 1011.6
20260508071237 49 25 2.0 3.0 0.00 0.04 0.00 73 1011.6
20260508071129 49 55 1.0 2.0 0.00 0.04 0.00 72 1011.5
20260508071024 49 4 2.0 4.0 0.00 0.04 0.00 72 1011.4
20260508070920 49 19 2.0 4.0 0.00 0.04 0.00 72 1011.5
20260508070815 49 40 3.0 6.0 0.00 0.04 0.00 72 1011.6
20260508070727 49 40 2.0 4.0 0.00 0.04 0.00 72 1011.6
20260508070703 49 49 2.0 6.0 0.00 0.05 0.00 72 1011.5
20260508070538 49 64 2.0 5.0 0.00 0.05 0.00 72 1011.7
20260508070430 49 39 2.0 3.0 0.00 0.05 0.00 72 1011.6
20260508070326 49 39 1.0 3.0 0.00 0.05 0.00 72 1011.4
20260508070221 49 191 0.0 3.0 0.00 0.05 0.00 72 1011.6
20260508070117 49 342 2.0 3.0 0.00 0.06 0.00 72 1011.5
20260508070029 49 5 1.0 3.0 0.00 0.06 0.00 71 1011.6
20260508065924 49 2 2.0 5.0 0.00 0.06 0.00 71 1011.6
20260508065820 49 18 3.0 6.0 0.00 0.06 0.00 71 1011.6
20260508065715 49 347 4.0 5.0 0.00 0.06 0.00 72 1011.6
20260508065627 49 46 1.0 3.0 0.00 0.06 0.00 72 1011.7
20260508065523 49 0.0 2.0 0.00 0.06 0.00 71 1011.6
20260508065418 49 85 1.0 3.0 0.00 0.07 0.00 71 1011.7
20260508065330 50 3 2.0 4.0 0.00 0.07 0.00 71 1011.6
20260508065246 50 69 1.0 2.0 0.00 0.07 0.00 71 1011.5
20260508065121 50 29 2.0 2.0 0.00 0.07 0.00 71 1011.5
20260508065017 50 46 1.0 2.0 0.00 0.08 0.00 71 1011.6
20260508064929 50 9 2.0 5.0 0.00 0.08 0.00 71 1011.5
20260508064824 50 36 2.0 5.0 0.00 0.08 0.00 70 1011.5
20260508064719 50 50 1.0 4.0 0.00 0.08 0.00 70 1011.7
20260508064615 50 49 2.0 4.0 0.00 0.08 0.00 70 1011.6
20260508064527 50 68 1.0 4.0 0.00 0.08 0.00 70 1011.5
20260508064423 50 34 2.0 6.0 0.00 0.08 0.00 70 1011.4
20260508064318 50 128 1.0 2.0 0.00 0.08 0.00 70 1011.6
20260508064230 50 33 1.0 2.0 0.00 0.08 0.00 70 1011.6
20260508064125 50 80 1.0 2.0 0.00 0.08 0.00 70 1011.3
20260508064021 50 8 3.0 4.0 0.00 0.08 0.00 70 1011.5
20260508063957 50 48 2.0 3.0 0.00 0.09 0.00 70 1011.4
20260508063848 50 173 1.0 3.0 0.00 0.09 0.00 69 1011.6
20260508063724 50 351 2.0 3.0 0.00 0.09 0.00 69 1011.3
20260508063619 50 74 1.0 4.0 0.00 0.10 0.00 69 1011.4
20260508063515 50 7 1.0 4.0 0.00 0.10 0.00 69 1011.6
20260508063427 50 326 1.0 5.0 0.00 0.10 0.00 69 1011.5
20260508063322 50 33 3.0 4.0 0.00 0.11 0.00 69 1011.5
20260508063218 50 338 2.0 6.0 0.00 0.11 0.00 69 1011.4
20260508063130 50 360 2.0 6.0 0.00 0.11 0.00 68 1011.5
20260508063025 51 34 3.0 4.0 0.00 0.11 0.00 68 1011.4
20260508062921 51 41 2.0 4.0 0.00 0.11 0.00 68 1011.5
20260508062816 51 353 2.0 5.0 0.00 0.11 0.00 68 1011.4
20260508062728 51 28 3.0 4.0 0.00 0.12 0.00 68 1011.5
20260508062624 51 41 4.0 9.0 0.00 0.12 0.00 67 1011.4
20260508062520 51 54 3.0 5.0 0.00 0.12 0.00 67 1011.4
20260508062415 51 28 4.0 7.0 0.00 0.12 0.00 67 1011.6
20260508062327 51 348 2.0 4.0 0.00 0.13 0.00 67 1011.6
20260508062222 51 9 3.0 6.0 0.00 0.13 0.00 67 1011.6
20260508062118 51 350 4.0 7.0 0.00 0.13 0.00 67 1011.7
20260508062030 51 1 2.0 4.0 0.00 0.13 0.00 67 1011.6
20260508061925 51 56 2.0 5.0 0.00 0.13 0.00 67 1011.8
20260508061821 51 10 3.0 4.0 0.00 0.13 0.00 67 1011.7
20260508061716 51 32 3.0 7.0 0.00 0.13 0.00 66 1011.7
20260508061648 51 40 3.0 5.0 0.00 0.13 0.00 67 1011.8
20260508061524 51 344 3.0 4.0 0.00 0.13 0.00 66 1011.9
20260508061419 51 350 3.0 7.0 0.00 0.14 0.00 66 1011.7
20260508061315 51 1 3.0 8.0 0.00 0.14 0.00 67 1011.7
20260508061227 51 12 1.0 2.0 0.00 0.14 0.00 66 1011.7
20260508061122 51 20 2.0 2.0 0.00 0.14 0.00 67 1011.7
20260508061058 51 38 2.0 3.0 0.00 0.14 0.00 67 1011.6
20260508060929 51 19 2.0 4.0 0.00 0.14 0.00 66 1011.7
20260508060825 51 23 3.0 5.0 0.00 0.14 0.00 66 1011.8
20260508060721 51 10 3.0 5.0 0.00 0.15 0.00 66 1011.7
20260508060616 51 31 3.0 5.0 0.00 0.15 0.00 65 1011.8
20260508060528 52 15 3.0 8.0 0.00 0.15 0.00 66 1011.7
20260508060423 52 359 4.0 8.0 0.00 0.15 0.00 66 1011.7
20260508060319 52 27 2.0 3.0 0.00 0.16 0.00 66 1011.8
20260508060230 52 31 3.0 6.0 0.00 0.16 0.00 65 1011.7
20260508060126 52 9 4.0 6.0 0.00 0.16 0.00 65 1011.5
20260508060022 52 355 3.0 5.0 0.00 0.17 0.00 64 1011.7
20260508055917 52 24 3.0 7.0 0.00 0.17 0.00 64 1011.7
20260508055829 52 315 5.0 9.0 0.00 0.17 0.00 64 1011.7
20260508055724 52 34 4.0 7.0 0.00 0.17 0.00 63 1011.6
20260508055620 52 327 3.0 5.0 0.00 0.17 0.00 62 1011.6
20260508055516 52 13 3.0 6.0 0.00 0.18 0.00 62 1011.5
20260508055428 52 339 4.0 8.0 0.00 0.18 0.00 62 1011.4
20260508055323 52 353 3.0 5.0 0.00 0.18 0.00 62 1011.6
20260508055219 52 351 3.0 7.0 0.00 0.18 0.00 62 1011.5
20260508055130 52 41 3.0 7.0 0.00 0.18 0.00 62 1011.5
20260508055026 52 343 5.0 7.0 0.00 0.18 0.00 63 1011.4
20260508054942 52 311 3.0 6.0 0.00 0.18 0.00 65 1011.4
20260508054857 52 339 2.0 4.0 0.00 0.19 0.00 65 1011.3
20260508054729 51 310 3.0 6.0 0.00 0.19 0.00 67 1011.2
20260508054624 51 38 2.0 4.0 0.00 0.19 0.00 68 1011.3
20260508054540 51 326 1.0 3.0 0.00 0.19 0.00 70 1011.2
20260508054416 51 15 1.0 4.0 0.00 0.19 0.00 72 1011.2
20260508054328 51 350 2.0 5.0 0.00 0.19 0.00 74 1011.2
20260508054223 51 306 1.0 4.0 0.00 0.19 0.00 77 1011.2
20260508054139 51 344 3.0 3.0 0.00 0.19 0.00 78 1011.1
20260508054031 51 327 1.0 4.0 0.00 0.19 0.00 79 1011.3
20260508053926 50 248 1.0 5.0 0.00 0.19 0.00 79 1011.2
20260508053822 50 330 2.0 5.0 0.00 0.19 0.00 80 1011.1
20260508053737 50 325 4.0 5.0 0.00 0.19 0.00 81 1011.1
20260508053629 50 156 1.0 2.0 0.00 0.19 0.00 81 1011.0
20260508053525 50 149 2.0 2.0 0.00 0.19 0.00 81 1011.0
20260508053420 50 297 1.0 4.0 0.00 0.19 0.00 81 1011.0
20260508053316 50 164 1.0 2.0 0.00 0.19 0.00 81 1010.9
20260508053228 49 232 1.0 3.0 0.00 0.19 0.00 81 1010.7
20260508053123 49 177 1.0 2.0 0.00 0.19 0.00 81 1010.4
20260508053019 49 117 1.0 2.0 0.00 0.20 0.00 81 1010.4
20260508052951 49 124 1.0 2.0 0.00 0.20 0.00 81 1010.3
20260508052926 49 155 1.0 2.0 0.00 0.20 0.00 81 1010.3
20260508052722 49 154 1.0 2.0 0.00 0.21 0.00 80 1010.2
20260508052617 49 175 2.0 2.0 0.00 0.21 0.00 80 1010.2
20260508052549 49 148 1.0 2.0 0.00 0.21 0.00 80 1010.1
20260508052425 49 167 1.0 2.0 0.00 0.21 0.00 80 1010.1
20260508052320 49 193 1.0 2.0 0.00 0.21 0.00 80 1010.0
20260508052216 49 188 1.0 2.0 0.00 0.21 0.00 80 1010.0
20260508052127 49 191 2.0 2.0 0.00 0.21 0.00 80 1010.2
20260508052023 49 189 2.0 2.0 0.00 0.21 0.00 80 1010.1
20260508051919 49 179 1.0 2.0 0.00 0.21 0.00 80 1010.0
20260508051830 49 163 1.0 2.0 0.00 0.21 0.00 79 1009.9
20260508051726 49 0.0 1.0 0.00 0.21 0.00 79 1009.9
20260508051642 49 148 1.0 1.0 0.00 0.21 0.00 79 1010.0
20260508051517 49 139 0.0 2.0 0.00 0.21 0.00 79 1010.0
20260508051429 49 139 1.0 2.0 0.00 0.21 0.00 79 1009.9
20260508051344 49 139 1.0 1.0 0.00 0.21 0.00 79 1009.7
20260508051220 49 0.0 1.0 0.00 0.21 0.00 79 1009.9
20260508051116 49 0.0 0.0 0.00 0.21 0.00 79 1009.9
20260508051027 49 107 0.0 1.0 0.00 0.21 0.00 78 1009.9
20260508050923 49 93 1.0 2.0 0.00 0.21 0.00 78 1009.9
20260508050819 49 87 1.0 2.0 0.00 0.21 0.00 78 1010.0
20260508050730 49 108 1.0 2.0 0.00 0.21 0.00 77 1010.2
20260508050646 49 114 1.0 2.0 0.00 0.21 0.00 78 1010.0
20260508050522 49 119 2.0 2.0 0.00 0.21 0.00 78 1010.2
20260508050417 49 119 2.0 2.0 0.00 0.21 0.00 77 1010.1
20260508050329 49 125 1.0 2.0 0.00 0.21 0.00 77 1010.2
20260508050225 49 157 2.0 2.0 0.00 0.21 0.00 77 1010.3
20260508050120 49 172 2.0 2.0 0.00 0.21 0.00 77 1010.1
20260508050016 49 163 1.0 3.0 0.00 0.21 0.00 77 1010.3
20260508045927 49 173 2.0 2.0 0.00 0.21 0.00 77 1010.4
20260508045843 49 170 2.0 2.0 0.00 0.21 0.00 77 1010.2
20260508045718 49 153 2.0 3.0 0.00 0.21 0.00 77 1010.3
20260508045630 49 158 2.0 2.0 0.00 0.21 0.00 77 1010.3
20260508045526 49 172 2.0 3.0 0.00 0.21 0.00 77 1010.2
20260508045421 49 170 2.0 2.0 0.00 0.21 0.00 78 1010.4
20260508045317 49 180 1.0 2.0 0.00 0.21 0.00 78 1010.3
20260508045248 49 178 2.0 3.0 0.00 0.21 0.00 78 1010.2
20260508045124 48 186 3.0 3.0 0.00 0.21 0.00 78 1010.4
20260508045019 48 182 3.0 3.0 0.00 0.21 0.00 79 1010.2
20260508044915 48 184 2.0 3.0 0.00 0.21 0.00 79 1010.4
20260508044827 48 166 1.0 2.0 0.00 0.21 0.00 79 1010.3
20260508044722 48 158 0.0 1.0 0.00 0.21 0.00 79 1010.2
20260508044618 48 148 1.0 1.0 0.00 0.21 0.00 80 1010.4
20260508044530 48 154 1.0 2.0 0.00 0.21 0.00 80 1010.3
20260508044425 48 172 1.0 2.0 0.00 0.21 0.00 80 1010.2
20260508044321 48 0.0 2.0 0.00 0.21 0.00 80 1010.3
20260508044216 47 123 1.0 2.0 0.00 0.21 0.00 80 1010.2
20260508044128 47 149 1.0 2.0 0.00 0.21 0.00 79 1010.3
20260508044024 47 132 1.0 2.0 0.00 0.21 0.00 79 1010.4
20260508043919 47 134 1.0 2.0 0.00 0.21 0.00 79 1010.3
20260508043851 47 151 0.0 2.0 0.00 0.21 0.00 79 1010.3
20260508043727 47 148 1.0 1.0 0.00 0.21 0.00 79 1010.0
20260508043622 47 125 0.0 2.0 0.00 0.21 0.00 79 1010.2
20260508043518 47 136 0.0 2.0 0.00 0.21 0.00 79 1010.1
20260508043429 47 132 0.0 2.0 0.00 0.21 0.00 79 1010.1
20260508043325 47 0.0 1.0 0.00 0.21 0.00 79 1010.0
20260508043220 47 134 1.0 2.0 0.00 0.21 0.00 79 1010.1
20260508043136 47 141 1.0 2.0 0.00 0.21 0.00 78 1010.0
20260508043028 47 139 1.0 2.0 0.00 0.21 0.00 78 1010.2
20260508043004 48 143 1.0 2.0 0.00 0.21 0.00 78 1010.1
20260508042819 48 135 0.0 1.0 0.00 0.21 0.00 78 1010.1
20260508042731 48 132 1.0 1.0 0.00 0.21 0.00 78 1010.0
20260508042626 48 0.0 1.0 0.00 0.21 0.00 78 1009.8
20260508042522 48 0.0 1.0 0.00 0.21 0.00 78 1009.9
20260508042417 48 0.0 1.0 0.00 0.21 0.00 78 1009.8
20260508042329 48 60 0.0 1.0 0.00 0.21 0.00 78 1009.9
20260508042225 48 114 1.0 2.0 0.00 0.21 0.00 78 1009.7
20260508042121 48 0.0 2.0 0.00 0.21 0.00 77 1010.0
20260508042016 48 112 1.0 2.0 0.00 0.21 0.00 77 1009.9
20260508041928 48 109 1.0 2.0 0.00 0.21 0.00 77 1010.0
20260508041823 48 129 1.0 2.0 0.00 0.21 0.00 77 1009.9
20260508041719 48 148 1.0 2.0 0.00 0.21 0.00 77 1009.8
20260508041631 48 164 2.0 2.0 0.00 0.21 0.00 77 1009.8
20260508041606 48 161 1.0 2.0 0.00 0.21 0.00 77 1009.9
20260508041422 48 164 2.0 2.0 0.00 0.21 0.00 77 1009.9
20260508041318 48 169 1.0 2.0 0.00 0.21 0.00 77 1009.9
20260508041229 48 172 1.0 1.0 0.00 0.21 0.00 77 1009.9
20260508041125 48 179 1.0 2.0 0.00 0.21 0.00 76 1010.0
20260508041040 48 164 1.0 2.0 0.00 0.21 0.00 76 1010.0
20260508040916 48 159 1.0 2.0 0.00 0.21 0.00 76 1009.9
20260508040827 48 163 1.0 2.0 0.00 0.21 0.00 76 1009.9
20260508040723 48 156 1.0 2.0 0.00 0.21 0.00 76 1010.1
20260508040639 48 157 1.0 2.0 0.00 0.21 0.00 76 1009.9
20260508040530 48 158 1.0 1.0 0.00 0.21 0.00 76 1010.0
20260508040506 48 161 0.0 1.0 0.00 0.21 0.00 76 1010.0
20260508040401 48 149 0.0 1.0 0.00 0.21 0.00 75 1010.1
20260508040217 48 159 1.0 1.0 0.00 0.21 0.00 75 1009.9
20260508040148 48 167 1.0 1.0 0.00 0.21 0.00 75 1010.1
20260508040024 48 166 1.0 1.0 0.00 0.21 0.00 75 1010.0
20260508035940 48 0.0 1.0 0.00 0.21 0.21 75 1009.9
20260508035816 48 164 1.0 2.0 0.00 0.21 0.21 75 1009.9
20260508035727 48 163 1.0 2.0 0.00 0.21 0.21 76 1009.9
20260508035623 48 161 2.0 2.0 0.00 0.21 0.21 76 1009.9
20260508035518 48 148 1.0 2.0 0.00 0.21 0.21 76 1009.9
20260508035430 48 135 1.0 1.0 0.00 0.21 0.21 75 1009.8
20260508035325 48 117 0.0 2.0 0.00 0.21 0.21 75 1010.0
20260508035221 48 102 0.0 2.0 0.00 0.21 0.21 75 1009.9
20260508035117 48 143 2.0 2.0 0.00 0.21 0.21 75 1009.9
20260508035029 48 160 1.0 2.0 0.00 0.21 0.21 74 1009.7
20260508034924 49 148 1.0 2.0 0.00 0.21 0.21 74 1010.0
20260508034820 49 144 1.0 2.0 0.00 0.21 0.21 74 1009.9
20260508034715 49 133 1.0 1.0 0.00 0.21 0.21 74 1009.9
20260508034627 49 123 1.0 2.0 0.00 0.21 0.21 74 1009.8
20260508034523 49 116 0.0 2.0 0.00 0.21 0.21 74 1009.9
20260508034418 49 114 1.0 2.0 0.00 0.21 0.21 74 1009.9
20260508034350 49 120 1.0 2.0 0.00 0.21 0.21 74 1009.8
20260508034225 49 138 1.0 2.0 0.00 0.21 0.21 74 1010.0
20260508034121 49 148 2.0 2.0 0.00 0.21 0.21 74 1009.9
20260508034017 49 130 2.0 2.0 0.00 0.21 0.21 73 1009.9
20260508033928 49 151 2.0 2.0 0.00 0.21 0.21 72 1009.9
20260508033844 49 154 1.0 2.0 0.00 0.21 0.21 72 1010.0
20260508033720 49 166 1.0 2.0 0.00 0.21 0.21 72 1010.0
20260508033635 49 162 1.0 2.0 0.00 0.21 0.21 72 1009.9
20260508033527 49 0.0 1.0 0.00 0.21 0.21 72 1009.8
20260508033423 49 0.0 1.0 0.00 0.21 0.21 72 1010.1
20260508033318 49 0.0 0.0 0.00 0.21 0.21 72 1010.1
20260508033230 49 0.0 1.0 0.00 0.21 0.21 72 1010.0
20260508033126 49 0.0 0.0 0.00 0.21 0.21 73 1010.0
20260508033021 49 0.0 0.0 0.00 0.21 0.21 72 1010.0
20260508032917 49 0.0 0.0 0.00 0.21 0.21 72 1010.0
20260508032848 49 142 0.0 1.0 0.00 0.21 0.21 72 1010.0
20260508032744 49 0.0 1.0 0.00 0.21 0.21 72 1009.9
20260508032620 49 176 1.0 2.0 0.00 0.21 0.21 72 1009.9
20260508032515 49 161 0.0 1.0 0.00 0.21 0.21 72 1009.8
20260508032427 49 0.0 1.0 0.00 0.21 0.21 72 1010.1
20260508032343 49 124 1.0 2.0 0.00 0.21 0.21 72 1010.0
20260508032218 49 118 2.0 2.0 0.00 0.21 0.21 72 1010.2
20260508032130 49 103 1.0 2.0 0.00 0.21 0.21 71 1010.1
20260508032026 49 84 0.0 1.0 0.00 0.21 0.21 71 1010.0
20260508031921 49 0.0 0.0 0.00 0.21 0.21 71 1010.0
20260508031817 49 0.0 1.0 0.00 0.21 0.21 71 1009.9
20260508031728 49 0.0 2.0 0.00 0.21 0.21 71 1010.0
20260508031624 49 166 1.0 1.0 0.00 0.21 0.21 71 1009.9
20260508031520 49 0.0 1.0 0.00 0.21 0.21 71 1010.0
20260508031415 49 0.0 1.0 0.00 0.21 0.21 71 1010.0
20260508031347 49 151 0.0 2.0 0.00 0.21 0.21 71 1010.3
20260508031223 49 144 1.0 2.0 0.00 0.21 0.21 70 1010.1
20260508031118 49 142 1.0 2.0 0.00 0.21 0.21 70 1010.2
20260508031030 49 0.0 1.0 0.00 0.21 0.21 70 1010.1
20260508030925 49 149 1.0 2.0 0.00 0.21 0.21 70 1010.0
20260508030821 49 0.0 2.0 0.00 0.21 0.21 70 1010.0
20260508030717 49 0.0 2.0 0.00 0.21 0.21 70 1010.2
20260508030629 49 179 2.0 3.0 0.00 0.21 0.21 69 1010.2
20260508030524 49 192 2.0 2.0 0.00 0.21 0.21 69 1010.1
20260508030420 49 190 2.0 3.0 0.00 0.21 0.21 70 1010.2
20260508030315 49 156 2.0 2.0 0.00 0.21 0.21 69 1010.2
20260508030247 49 54 1.0 2.0 0.00 0.21 0.21 69 1010.2
20260508030123 49 57 0.0 1.0 0.00 0.21 0.21 69 1010.1
20260508030018 49 212 1.0 2.0 0.00 0.21 0.21 70 1010.2
20260508025930 49 163 1.0 2.0 0.00 0.21 0.21 69 1010.3
20260508025825 49 140 0.0 2.0 0.00 0.21 0.21 69 1010.2
20260508025721 49 0.0 2.0 0.00 0.21 0.21 69 1010.0
20260508025637 49 0.0 1.0 0.00 0.21 0.21 69 1010.2
20260508025529 49 130 0.0 1.0 0.00 0.21 0.21 69 1010.1
20260508025424 49 73 1.0 2.0 0.00 0.21 0.21 69 1010.2
20260508025320 50 125 1.0 2.0 0.00 0.21 0.21 69 1010.0
20260508025215 50 159 0.0 1.0 0.00 0.21 0.21 69 1010.0
20260508025127 50 0.0 1.0 0.00 0.21 0.21 69 1010.2
20260508025023 50 0.0 1.0 0.00 0.21 0.21 69 1010.0
20260508024918 50 86 1.0 2.0 0.00 0.21 0.21 68 1010.0
20260508024910 50 82 2.0 2.0 0.00 0.21 0.21 68 1010.1
20260508024726 50 123 1.0 2.0 0.00 0.21 0.21 67 1010.1
20260508024621 50 160 2.0 2.0 0.00 0.21 0.21 67 1010.1
20260508024517 50 161 1.0 2.0 0.00 0.21 0.21 67 1010.0
20260508024429 50 141 1.0 2.0 0.00 0.21 0.21 67 1010.2
20260508024324 50 0.0 2.0 0.00 0.21 0.21 66 1010.1
20260508024220 50 129 1.0 2.0 0.00 0.21 0.21 66 1010.1
20260508024116 50 142 2.0 2.0 0.00 0.21 0.21 66 1010.1
20260508024027 50 156 2.0 2.0 0.00 0.21 0.21 66 1010.2
20260508023923 50 156 2.0 2.0 0.00 0.21 0.21 66 1010.2
20260508023819 50 167 2.0 3.0 0.00 0.21 0.21 66 1010.0
20260508023750 50 166 2.0 3.0 0.00 0.21 0.21 66 1010.2
20260508023626 50 182 2.0 4.0 0.00 0.21 0.21 66 1010.2
20260508023542 50 163 2.0 3.0 0.00 0.21 0.21 67 1010.2
20260508023417 50 145 2.0 3.0 0.00 0.21 0.21 67 1010.3
20260508023329 50 136 2.0 2.0 0.00 0.21 0.21 66 1010.1
20260508023224 50 135 2.0 2.0 0.00 0.21 0.21 65 1010.1
20260508023120 50 163 0.0 2.0 0.00 0.21 0.21 64 1010.1
20260508023016 50 0.0 2.0 0.00 0.21 0.21 64 1010.1
20260508022927 51 0.0 1.0 0.00 0.21 0.21 64 1010.1
20260508022823 51 142 0.0 1.0 0.00 0.21 0.21 64 1010.2
20260508022719 51 0.0 1.0 0.00 0.21 0.21 64 1009.9
20260508022630 51 0.0 1.0 0.00 0.21 0.21 64 1010.1
20260508022526 51 0.0 0.0 0.00 0.21 0.21 64 1010.0
20260508022422 51 0.0 1.0 0.00 0.21 0.21 64 1010.0
20260508022317 51 113 0.0 2.0 0.00 0.21 0.21 64 1010.0
20260508022249 51 120 0.0 2.0 0.00 0.21 0.21 64 1010.0
20260508022125 51 55 1.0 2.0 0.00 0.21 0.21 64 1010.1
20260508022020 51 40 1.0 2.0 0.00 0.21 0.21 64 1009.9
20260508021916 51 82 0.0 1.0 0.00 0.21 0.21 64 1009.8
20260508021827 51 0.0 1.0 0.00 0.21 0.21 63 1009.8
20260508021723 51 0.0 0.0 0.00 0.21 0.21 63 1009.9
20260508021619 51 0.0 1.0 0.00 0.21 0.21 63 1010.0
20260508021530 51 0.0 1.0 0.00 0.21 0.21 63 1010.0
20260508021426 51 0.0 2.0 0.00 0.21 0.21 62 1009.8
20260508021322 51 117 1.0 2.0 0.00 0.21 0.21 62 1009.7
20260508021218 51 114 1.0 1.0 0.00 0.21 0.21 62 1010.0
20260508021129 51 54 1.0 1.0 0.00 0.21 0.21 63 1009.9
20260508021045 51 39 0.0 2.0 0.00 0.21 0.21 62 1010.0
20260508020920 51 82 1.0 1.0 0.00 0.21 0.21 62 1010.1
20260508020816 51 109 0.0 1.0 0.00 0.21 0.21 62 1010.0
20260508020729 51 126 0.0 1.0 0.00 0.21 0.21 62 1009.9
20260508020644 52 0.0 0.0 0.00 0.21 0.21 62 1009.8
20260508020519 52 0.0 0.0 0.00 0.21 0.21 61 1009.7
20260508020431 52 0.0 0.0 0.00 0.21 0.21 61 1009.9
20260508020326 52 123 0.0 2.0 0.00 0.21 0.21 61 1009.8
20260508020222 52 101 1.0 2.0 0.00 0.21 0.21 61 1009.8
20260508020118 52 0.0 1.0 0.00 0.21 0.21 61 1009.8
20260508020029 52 0.0 1.0 0.00 0.21 0.21 60 1010.0
20260508015945 52 81 1.0 2.0 0.00 0.21 0.21 60 1009.9
20260508015821 52 53 0.0 2.0 0.00 0.21 0.21 60 1010.0
20260508015716 52 92 1.0 2.0 0.00 0.21 0.21 61 1009.9
20260508015628 52 105 0.0 1.0 0.00 0.21 0.21 61 1009.8
20260508015524 52 0.0 0.0 0.00 0.21 0.21 60 1009.8
20260508015419 52 0.0 0.0 0.00 0.21 0.21 60 1009.8
20260508015331 52 143 0.0 1.0 0.00 0.21 0.21 60 1009.9
20260508015226 52 132 1.0 1.0 0.00 0.21 0.21 60 1009.6
20260508015122 52 181 0.0 2.0 0.00 0.21 0.21 60 1009.8
20260508015018 52 0.0 1.0 0.00 0.21 0.21 60 1009.7
20260508014929 52 0.0 1.0 0.00 0.21 0.21 59 1009.7
20260508014825 52 0.0 1.0 0.00 0.21 0.21 59 1009.7
20260508014721 52 127 0.0 1.0 0.00 0.21 0.21 59 1009.6
20260508014637 52 0.0 1.0 0.00 0.21 0.21 59 1009.8
20260508014528 52 0.0 1.0 0.00 0.21 0.21 59 1009.7
20260508014444 52 155 0.0 1.0 0.00 0.21 0.21 59 1009.8
20260508014319 53 165 1.0 1.0 0.00 0.21 0.21 59 1009.8
20260508014215 53 134 1.0 1.0 0.00 0.21 0.21 59 1009.6
20260508014127 53 174 1.0 1.0 0.00 0.21 0.21 59 1009.5
20260508014023 53 0.0 0.0 0.00 0.21 0.21 59 1009.7
20260508013938 53 0.0 0.0 0.00 0.21 0.21 59 1009.5
20260508013830 53 0.0 0.0 0.00 0.21 0.21 59 1009.7
20260508013725 53 0.0 1.0 0.00 0.21 0.21 58 1009.8
20260508013621 53 0.0 1.0 0.00 0.21 0.21 58 1009.8
20260508013517 53 0.0 1.0 0.00 0.21 0.21 58 1009.7
20260508013428 53 79 1.0 2.0 0.00 0.21 0.21 58 1009.7
20260508013324 53 109 0.0 1.0 0.00 0.22 0.21 59 1009.7
20260508013220 53 78 1.0 2.0 0.00 0.24 0.21 57 1009.7
20260508013115 53 79 1.0 2.0 0.00 0.24 0.21 57 1009.6
20260508013027 53 98 0.0 2.0 0.00 0.24 0.21 57 1009.6
20260508012942 53 98 1.0 2.0 0.00 0.24 0.21 57 1009.5
20260508012818 53 92 1.0 1.0 0.00 0.24 0.21 57 1009.6
20260508012730 53 94 1.0 2.0 0.00 0.24 0.21 57 1009.6
20260508012625 53 96 1.0 2.0 0.00 0.24 0.21 57 1009.6
20260508012541 53 136 0.0 1.0 0.00 0.24 0.21 58 1009.4
20260508012417 53 0.0 1.0 0.00 0.24 0.21 58 1009.5
20260508012328 53 0.0 2.0 0.00 0.24 0.21 57 1009.8
20260508012224 53 113 1.0 1.0 0.00 0.24 0.21 56 1009.5
20260508012139 53 0.0 2.0 0.00 0.24 0.21 56 1009.8
20260508012015 53 0.0 2.0 0.00 0.24 0.21 57 1009.8
20260508011927 53 142 1.0 2.0 0.00 0.24 0.21 57 1009.8
20260508011843 54 107 0.0 2.0 0.00 0.24 0.21 57 1009.7
20260508011718 54 122 1.0 2.0 0.00 0.24 0.21 56 1009.7
20260508011630 54 127 1.0 2.0 0.00 0.24 0.21 56 1009.7
20260508011545 54 0.0 2.0 0.00 0.24 0.21 56 1009.7
20260508011421 54 109 1.0 2.0 0.00 0.24 0.21 56 1009.6
20260508011317 54 106 1.0 2.0 0.00 0.24 0.21 55 1009.7
20260508011228 54 104 1.0 2.0 0.00 0.24 0.21 55 1009.6
20260508011124 54 93 1.0 2.0 0.00 0.24 0.21 55 1009.5
20260508011020 54 67 1.0 2.0 0.00 0.24 0.21 55 1009.8
20260508010935 54 0.0 1.0 0.00 0.24 0.21 55 1009.8
20260508010827 54 96 0.0 2.0 0.00 0.24 0.21 55 1009.6
20260508010723 54 136 0.0 2.0 0.00 0.24 0.21 55 1009.5
20260508010638 54 125 0.0 2.0 0.00 0.24 0.21 55 1009.6
20260508010530 54 136 0.0 2.0 0.00 0.24 0.21 54 1009.6
20260508010446 54 125 1.0 1.0 0.00 0.24 0.21 54 1009.6
20260508010321 55 134 1.0 2.0 0.00 0.24 0.21 54 1009.4
20260508010217 55 131 1.0 2.0 0.00 0.24 0.21 54 1009.6
20260508010128 55 136 1.0 2.0 0.00 0.24 0.21 54 1009.5
20260508010024 55 109 0.0 1.0 0.00 0.24 0.21 53 1009.7
20260508005920 55 0.0 2.0 0.00 0.24 0.21 53 1009.6
20260508005815 55 142 1.0 2.0 0.00 0.24 0.21 53 1009.5
20260508005727 55 137 0.0 1.0 0.00 0.24 0.21 52 1009.5
20260508005622 55 168 0.0 1.0 0.00 0.24 0.21 52 1009.5
20260508005518 55 0.0 2.0 0.00 0.24 0.21 52 1009.6
20260508005430 55 150 0.0 1.0 0.00 0.24 0.21 52 1009.3
20260508005345 55 130 1.0 1.0 0.00 0.24 0.21 52 1009.3
20260508005221 56 125 1.0 1.0 0.00 0.24 0.21 51 1009.5
20260508005137 56 0.0 1.0 0.00 0.24 0.21 51 1009.5
20260508005048 56 109 1.0 2.0 0.00 0.24 0.21 50 1009.4
20260508004944 56 131 1.0 2.0 0.00 0.24 0.21 50 1009.4
20260508004820 56 0.0 2.0 0.00 0.24 0.21 50 1009.3
20260508004715 56 109 1.0 1.0 0.00 0.24 0.21 50 1009.2
20260508004627 56 89 0.0 1.0 0.00 0.24 0.21 51 1009.2
20260508004522 56 0.0 1.0 0.00 0.24 0.21 50 1009.4
20260508004418 56 99 0.0 2.0 0.00 0.24 0.21 50 1009.2
20260508004330 56 103 2.0 2.0 0.00 0.24 0.21 50 1009.3
20260508004225 56 110 1.0 2.0 0.00 0.24 0.21 50 1009.3
20260508004121 56 131 0.0 1.0 0.00 0.24 0.21 48 1009.4
20260508004017 56 0.0 1.0 0.00 0.24 0.21 47 1009.4
20260508003928 56 116 0.0 2.0 0.00 0.24 0.21 48 1009.3
20260508003824 56 102 1.0 2.0 0.00 0.24 0.21 48 1009.3
20260508003739 56 153 1.0 2.0 0.00 0.24 0.21 48 1009.4
20260508003615 56 0.0 2.0 0.00 0.24 0.21 49 1009.3
20260508003527 57 132 1.0 2.0 0.00 0.24 0.21 48 1009.4
20260508003422 57 123 0.0 1.0 0.00 0.24 0.21 48 1009.3
20260508003318 57 125 0.0 2.0 0.00 0.24 0.21 47 1009.3
20260508003230 57 142 1.0 2.0 0.00 0.24 0.21 47 1009.3
20260508003125 57 60 0.0 2.0 0.00 0.24 0.21 46 1009.2
20260508003021 57 0.0 1.0 0.00 0.24 0.21 47 1009.1
20260508002917 57 133 0.0 2.0 0.00 0.24 0.21 47 1009.3
20260508002849 57 0.0 2.0 0.00 0.24 0.21 46 1009.1
20260508002744 57 116 1.0 2.0 0.00 0.24 0.21 46 1009.0
20260508002640 57 126 0.0 1.0 0.00 0.24 0.21 46 1009.1
20260508002535 57 160 0.0 2.0 0.00 0.24 0.21 46 1009.1
20260508002427 57 0.0 2.0 0.00 0.24 0.21 45 1009.1
20260508002343 57 171 1.0 2.0 0.00 0.24 0.21 46 1008.9
20260508002238 57 0.0 1.0 0.00 0.24 0.21 45 1009.0
20260508002130 57 0.0 2.0 0.00 0.24 0.21 46 1009.0
20260508002026 57 145 1.0 2.0 0.00 0.24 0.21 45 1009.0
20260508001921 58 0.0 0.0 0.00 0.24 0.21 45 1009.0
20260508001837 58 0.0 2.0 0.00 0.24 0.21 44 1009.1
20260508001728 58 157 1.0 2.0 0.00 0.24 0.21 44 1008.9
20260508001644 58 139 0.0 2.0 0.00 0.24 0.21 44 1008.9
20260508001520 58 0.0 2.0 0.00 0.24 0.21 44 1009.0
20260508001415 58 130 1.0 2.0 0.00 0.24 0.21 44 1008.9
20260508001327 58 139 0.0 2.0 0.00 0.24 0.21 44 1008.9
20260508001223 58 128 0.0 2.0 0.00 0.24 0.21 44 1008.8
20260508001118 58 128 1.0 2.0 0.00 0.24 0.21 45 1008.8
20260508001030 59 153 0.0 2.0 0.00 0.24 0.21 44 1008.9
20260508000925 59 120 1.0 2.0 0.00 0.24 0.21 44 1009.0
20260508000821 59 137 0.0 1.0 0.00 0.24 0.21 43 1008.8
20260508000717 59 137 1.0 2.0 0.00 0.24 0.21 42 1008.8
20260508000629 59 0.0 1.0 0.00 0.24 0.21 41 1008.7
20260508000524 59 352 0.0 1.0 0.00 0.24 0.21 41 1009.0
20260508000420 59 0.0 1.0 0.00 0.24 0.21 40 1009.1
20260508000315 59 151 0.0 1.0 0.00 0.24 0.21 40 1009.0
20260508000227 59 0.0 1.0 0.00 0.24 0.21 41 1008.8
20260508000143 60 80 0.0 1.0 0.00 0.24 0.21 40 1008.9
20260508000018 60 122 1.0 2.0 0.00 0.24 0.21 39 1008.8
20260507235930 60 80 0.0 2.0 0.00 0.24 0.21 40 1008.8
20260507235846 60 87 1.0 2.0 0.00 0.24 0.21 38 1008.8
20260507235721 60 0.0 1.0 0.00 0.24 0.21 39 1008.9
20260507235637 60 128 1.0 2.0 0.00 0.24 0.21 39 1008.8
20260507235528 60 162 1.0 2.0 0.00 0.24 0.21 39 1008.8
20260507235444 60 0.0 1.0 0.00 0.24 0.21 38 1008.7
20260507235320 60 0.0 1.0 0.00 0.24 0.21 39 1008.8
20260507235215 60 121 1.0 1.0 0.00 0.24 0.21 38 1008.8
20260507235127 60 89 0.0 1.0 0.00 0.24 0.21 38 1008.7
20260507235023 60 0.0 2.0 0.00 0.24 0.21 38 1008.6
20260507234918 60 126 1.0 2.0 0.00 0.24 0.21 38 1008.6
20260507234850 60 122 0.0 1.0 0.00 0.24 0.21 38 1008.8
20260507234725 60 143 1.0 2.0 0.00 0.24 0.21 38 1008.7
20260507234621 60 0.0 1.0 0.00 0.24 0.21 38 1008.7
20260507234517 60 143 0.0 1.0 0.00 0.24 0.21 38 1008.6
20260507234428 60 4 0.0 2.0 0.00 0.24 0.21 38 1008.7
20260507234324 60 65 1.0 2.0 0.00 0.24 0.21 37 1008.8
20260507234219 60 286 2.0 3.0 0.00 0.24 0.21 37 1008.7
20260507234115 60 44 0.0 1.0 0.00 0.24 0.21 37 1008.6
20260507234026 60 0.0 2.0 0.00 0.24 0.21 38 1008.8
20260507233922 60 125 1.0 2.0 0.00 0.24 0.21 38 1008.8
20260507233818 60 182 1.0 2.0 0.00 0.24 0.21 38 1008.9
20260507233729 60 139 1.0 1.0 0.00 0.24 0.21 38 1008.7
20260507233625 60 129 0.0 2.0 0.00 0.24 0.21 37 1008.7
20260507233521 61 150 0.0 2.0 0.00 0.24 0.21 36 1008.7
20260507233437 61 167 1.0 2.0 0.00 0.24 0.21 36 1008.8
20260507233328 61 131 1.0 1.0 0.00 0.24 0.21 36 1008.6
20260507233224 61 158 0.0 2.0 0.00 0.24 0.21 36 1008.7
20260507233120 61 0.0 2.0 0.00 0.24 0.21 35 1008.7
20260507233015 61 81 1.0 2.0 0.00 0.24 0.21 36 1008.7
20260507232927 61 118 0.0 2.0 0.00 0.24 0.21 37 1008.8
20260507232822 61 173 0.0 2.0 0.00 0.24 0.21 37 1008.6
20260507232718 61 0.0 0.0 0.00 0.24 0.21 37 1008.7
20260507232629 61 319 0.0 1.0 0.00 0.24 0.21 37 1008.6
20260507232525 61 41 1.0 2.0 0.00 0.24 0.21 36 1008.5
20260507232441 61 25 1.0 2.0 0.00 0.24 0.21 36 1008.5
20260507232316 61 14 1.0 2.0 0.00 0.24 0.21 36 1008.6
20260507232228 61 31 1.0 4.0 0.00 0.24 0.21 35 1008.5
20260507232124 61 91 1.0 2.0 0.00 0.24 0.21 36 1008.3
20260507232019 61 25 1.0 1.0 0.00 0.24 0.21 36 1008.4
20260507231915 61 1 1.0 2.0 0.00 0.24 0.21 36 1008.5
20260507231827 62 351 2.0 2.0 0.00 0.24 0.21 36 1008.4
20260507231723 62 173 1.0 2.0 0.00 0.24 0.21 36 1008.5
20260507231618 62 157 0.0 1.0 0.00 0.24 0.21 36 1008.5
20260507231530 62 74 2.0 2.0 0.00 0.24 0.21 35 1008.5
20260507231425 62 283 1.0 2.0 0.00 0.24 0.21 35 1008.6
20260507231321 62 167 0.0 2.0 0.00 0.24 0.21 34 1008.4
20260507231216 62 55 2.0 3.0 0.00 0.24 0.21 35 1008.3
20260507231128 62 18 1.0 2.0 0.00 0.24 0.21 36 1008.4
20260507231024 62 351 2.0 4.0 0.00 0.24 0.21 35 1008.4
20260507230920 62 37 1.0 2.0 0.00 0.24 0.21 35 1008.4
20260507230815 62 33 1.0 2.0 0.00 0.24 0.21 35 1008.5
20260507230727 62 29 2.0 4.0 0.00 0.24 0.21 34 1008.7
20260507230623 62 19 1.0 2.0 0.00 0.24 0.21 35 1008.6
20260507230518 62 336 2.0 3.0 0.00 0.24 0.21 34 1008.5
20260507230430 62 291 3.0 5.0 0.00 0.24 0.21 35 1008.5
20260507230325 62 302 1.0 2.0 0.00 0.24 0.21 35 1008.5
20260507230221 62 81 1.0 3.0 0.00 0.24 0.21 35 1008.7
20260507230117 62 62 3.0 4.0 0.00 0.24 0.21 35 1008.6
20260507230029 62 352 1.0 3.0 0.00 0.24 0.21 36 1008.7
20260507225924 62 341 2.0 4.0 0.00 0.24 0.21 36 1008.6
20260507225819 62 359 1.0 2.0 0.00 0.24 0.21 37 1008.5
20260507225715 62 328 0.0 2.0 0.00 0.24 0.21 37 1008.4
20260507225627 62 53 0.0 2.0 0.00 0.24 0.21 35 1008.4
20260507225522 62 340 0.0 2.0 0.00 0.24 0.21 35 1008.5
20260507225418 62 128 0.0 1.0 0.00 0.24 0.21 35 1008.5
20260507225329 62 0.0 1.0 0.00 0.24 0.21 35 1008.6
20260507225225 62 19 0.0 4.0 0.00 0.24 0.21 34 1008.3
20260507225141 62 2 1.0 2.0 0.00 0.24 0.21 35 1008.7
20260507225017 62 355 2.0 4.0 0.00 0.24 0.21 34 1008.6
20260507224928 62 35 2.0 3.0 0.00 0.24 0.21 34 1008.4
20260507224824 62 1 1.0 2.0 0.00 0.24 0.21 35 1008.4
20260507224719 62 2 1.0 2.0 0.00 0.24 0.21 34 1008.4
20260507224615 62 43 1.0 2.0 0.00 0.24 0.21 35 1008.2
20260507224527 63 349 1.0 2.0 0.00 0.24 0.21 35 1008.3
20260507224422 63 85 1.0 2.0 0.00 0.24 0.21 36 1008.3
20260507224338 63 46 2.0 3.0 0.00 0.24 0.21 34 1008.2
20260507224229 63 1 1.0 2.0 0.00 0.24 0.21 35 1008.4
20260507224145 63 359 1.0 4.0 0.00 0.24 0.21 33 1008.4
20260507224021 63 308 1.0 3.0 0.00 0.24 0.21 33 1008.4
20260507223916 63 350 2.0 3.0 0.00 0.24 0.21 34 1008.4
20260507223828 63 2 2.0 4.0 0.00 0.24 0.21 33 1008.4
20260507223724 63 347 4.0 6.0 0.00 0.24 0.21 34 1008.4
20260507223619 63 131 1.0 2.0 0.00 0.24 0.21 35 1008.7
20260507223515 63 43 3.0 4.0 0.00 0.24 0.21 33 1008.5
20260507223427 63 156 0.0 2.0 0.00 0.24 0.21 34 1008.5
20260507223322 63 223 1.0 2.0 0.00 0.24 0.21 34 1008.5
20260507223238 63 346 0.0 2.0 0.00 0.24 0.21 33 1008.4
20260507223130 63 359 1.0 3.0 0.00 0.24 0.21 34 1008.4
20260507223025 63 1 3.0 4.0 0.00 0.24 0.21 33 1008.4
20260507222921 63 353 2.0 3.0 0.00 0.24 0.21 33 1008.5
20260507222816 63 49 2.0 5.0 0.00 0.24 0.21 33 1008.4
20260507222728 63 47 3.0 5.0 0.00 0.24 0.21 33 1008.5
20260507222624 64 289 2.0 4.0 0.00 0.24 0.21 33 1008.5
20260507222520 64 351 3.0 5.0 0.00 0.24 0.21 33 1008.4
20260507222435 64 275 1.0 3.0 0.00 0.24 0.21 34 1008.4
20260507222327 64 86 2.0 2.0 0.00 0.24 0.21 33 1008.3